GFSFLT2_850_thetae_000.txt.gz
Theta_e
317 316 315 315 315 317 317 317 317 315 316 317 316 314 315 313 313 311 307 307 309 309 309 308 308 308 308 308 307 308 310 323
331 328 322 328 318 310 311 312 313 314 316 317 316 327 325 325 319 316 312 309 310 312 312 309 307 308 312 313 313 309 322 321
330 331 330 329 325 315 317 314 322 323 327 321 328 327 328 325 321 324 322 322 319 318 317 316 315 315 313 314 314 320 323 320
332 330 329 323 326 327 326 326 325 326 326 326 330 326 325 326 326 324 324 322 322 321 319 320 320 316 313 316 317 318 315 314
331 331 323 329 326 328 328 328 326 327 330 326 325 324 327 326 325 324 322 321 322 320 321 320 320 316 310 309 309 311 312 316
334 330 317 319 329 329 328 327 327 327 327 328 324 324 323 319 321 317 318 318 318 319 318 318 317 317 311 309 308 308 307 311
331 330 322 323 317 328 327 326 328 324 326 325 314 314 317 316 318 317 317 317 317 317 317 317 317 315 312 311 310 310 309 308
333 335 331 325 327 326 329 326 324 323 323 322 315 314 315 315 314 316 318 318 317 317 318 318 318 318 317 314 312 311 310 310
333 332 331 326 324 325 326 323 319 321 321 321 321 320 316 315 314 318 319 318 318 317 318 318 317 318 318 316 315 313 311 311
331 333 331 325 324 324 323 323 322 322 321 320 320 320 319 318 317 315 317 318 316 318 317 317 318 317 317 317 316 315 313 311
332 332 327 323 322 322 323 323 321 320 319 318 317 317 317 317 315 314 314 315 315 317 317 318 320 318 317 317 316 316 316 313
327 330 323 322 323 323 321 320 318 318 317 317 316 316 316 313 312 312 314 314 314 315 316 315 312 312 314 316 315 314 314 314
326 328 322 322 323 320 318 317 316 316 316 315 313 313 313 312 311 312 312 311 311 311 310 309 310 311 312 314 314 314 316 317
326 324 320 318 317 317 316 315 314 314 314 312 312 312 312 312 310 309 309 309 309 308 310 310 309 308 310 310 312 311 312 312
320 319 318 316 315 314 313 313 313 313 313 313 312 312 311 308 307 307 307 307 306 302 304 306 308 308 309 309 309 310 310 310
317 316 314 313 313 313 313 313 313 314 314 313 310 310 308 307 306 305 305 305 304 304 305 305 304 305 306 307 308 307 306 307
316 315 314 313 313 313 313 313 313 310 309 308 307 307 306 305 304 304 303 303 302 303 304 303 304 305 306 305 305 304 301 301
315 313 313 313 313 313 312 309 308 308 308 307 306 306 304 302 302 302 302 302 302 302 303 304 303 303 302 301 301 299 298 298
316 316 315 313 312 311 310 309 308 307 306 305 305 301 301 301 301 301 301 301 301 301 301 300 300 300 299 299 299 298 297 296
316 315 314 313 312 311 310 308 307 305 304 304 301 301 300 300 300 300 300 299 299 298 298 298 298 297 297 297 296 295 295 295

GFSFLT2_850_thetae_003.txt.gz
Theta_e
316 315 315 314 315 316 315 315 314 312 312 315 313 315 317 315 310 311 312 311 311 312 311 312 309 309 310 311 312 312 314 325
320 319 324 320 309 310 310 309 308 309 311 314 321 319 317 318 320 319 320 319 318 317 316 313 313 313 311 310 314 315 323 321
329 324 322 324 318 311 309 314 315 316 317 321 323 321 319 319 322 321 320 318 320 318 316 314 313 313 311 308 311 316 319 322
330 326 318 325 325 325 325 324 323 323 319 319 322 320 322 324 323 320 320 318 318 317 317 315 314 313 313 309 307 308 311 317
327 323 322 326 325 326 327 327 325 326 327 323 322 326 325 324 319 316 315 316 316 317 317 317 316 316 314 311 309 307 307 311
330 321 316 326 325 328 326 328 326 327 325 325 317 320 319 314 315 315 316 317 317 317 317 316 317 317 317 316 314 312 309 307
329 325 317 315 328 329 329 328 328 325 325 323 314 313 316 315 314 314 314 317 317 317 317 316 318 318 317 317 317 316 315 314
330 330 330 325 324 325 324 326 326 323 323 322 317 316 315 316 314 314 314 318 319 319 318 316 318 318 317 317 317 317 316 316
331 331 331 329 325 323 324 326 319 322 321 320 320 321 320 319 317 316 316 315 316 315 314 316 317 316 318 317 317 316 316 316
332 327 326 325 325 322 323 323 321 322 322 321 321 321 319 317 318 313 312 313 313 314 312 315 316 319 319 318 317 316 317 315
329 330 327 326 324 323 324 323 321 319 318 317 318 317 315 316 315 311 311 311 313 315 315 315 316 315 313 310 313 317 317 316
330 329 325 322 322 324 322 320 319 318 317 316 315 314 313 312 312 312 312 311 311 312 312 312 311 310 313 314 313 312 316 314
326 323 321 322 323 323 321 319 316 315 314 313 313 313 312 313 312 311 309 309 309 309 309 309 309 308 306 305 305 305 308 307
325 323 322 321 320 319 318 316 314 312 312 312 312 313 313 312 311 309 308 308 308 308 307 305 305 305 305 306 308 307 307 308
321 321 319 318 316 314 313 312 312 312 313 313 311 309 309 309 308 307 306 306 306 306 305 304 303 303 303 304 306 306 307 306
318 317 316 313 312 313 312 313 313 313 313 310 308 308 308 308 306 305 304 304 304 304 302 302 303 304 304 305 307 306 302 303
314 314 313 313 312 312 312 311 309 307 307 307 307 307 307 306 304 302 301 301 300 300 301 302 303 304 303 304 304 303 302 301
315 315 314 313 312 311 310 309 308 307 307 307 306 306 305 302 300 300 301 301 301 301 301 301 301 301 300 300 300 299 299 299
316 315 315 314 312 310 309 308 307 307 306 305 304 302 300 300 299 300 300 300 300 300 299 299 298 298 298 298 298 296 297 295
315 315 314 313 312 311 310 308 306 304 305 305 302 300 301 300 300 300 299 299 299 298 298 297 298 297 297 296 296 295 295 294

GFSFLT2_850_thetae_006.txt.gz
Theta_e
316 316 316 315 316 316 314 313 311 309 310 311 311 316 315 315 316 317 318 318 317 316 314 313 313 312 312 310 312 313 315 320
316 316 313 309 310 310 310 309 308 308 310 316 319 317 318 319 317 317 317 316 317 316 315 313 313 313 311 308 310 315 320 320
321 319 319 315 310 309 311 315 314 314 316 318 317 319 316 317 316 315 316 315 315 316 317 316 314 313 312 310 308 309 313 313
325 319 318 320 323 322 322 321 320 317 319 316 315 317 317 317 314 313 313 315 316 316 317 316 316 316 315 315 314 309 307 308
328 319 317 322 323 325 325 326 324 324 322 317 318 318 315 314 313 313 313 315 316 316 316 316 316 316 317 317 317 316 314 311
329 320 319 324 323 327 325 327 326 326 324 321 316 317 315 314 314 314 314 315 315 315 314 314 316 315 318 318 317 317 317 316
329 320 325 325 326 328 327 327 327 326 325 322 316 314 315 316 317 316 317 318 317 317 319 318 317 315 318 317 317 317 316 316
331 323 322 322 328 328 328 328 326 324 321 321 320 320 320 320 318 317 315 315 314 314 315 315 315 314 316 317 317 317 318 318
330 329 323 324 325 325 326 326 323 322 321 321 321 321 321 321 319 318 315 311 312 312 312 312 313 315 317 317 318 315 313 314
329 330 325 325 324 324 325 323 321 321 321 321 321 321 321 318 317 315 314 314 312 312 312 312 313 314 315 315 313 311 312 314
331 330 328 326 322 324 323 323 321 321 319 318 320 318 317 314 313 312 312 313 312 311 311 311 311 311 311 311 311 311 312 312
330 329 327 326 325 323 323 323 321 318 317 315 314 313 313 312 312 313 312 310 310 310 309 309 309 308 307 306 305 305 305 305
326 325 325 324 323 323 323 320 316 313 312 312 312 312 312 313 312 312 311 309 308 308 308 308 307 305 304 304 302 302 301 302
322 321 323 322 321 320 316 314 312 312 312 312 312 312 312 309 309 309 307 307 306 306 306 305 305 303 302 300 302 300 300 303
320 319 319 319 317 313 312 312 312 313 312 311 310 308 308 308 307 306 305 303 302 302 302 301 301 300 300 303 304 304 304 303
314 314 313 313 313 312 312 312 311 311 309 308 307 307 307 307 306 304 301 300 299 298 298 299 298 299 301 302 302 301 302 301
314 314 312 313 313 312 312 311 310 309 309 308 307 307 306 304 302 301 297 297 297 298 299 299 299 300 298 299 298 298 298 297
315 315 315 315 314 312 312 311 309 308 307 306 305 304 304 303 302 298 299 299 298 298 298 298 298 298 298 298 298 297 296 296
315 315 315 314 313 312 311 309 308 307 305 305 306 303 303 302 300 300 300 299 295 297 297 297 297 296 296 295 295 295 295 295
315 314 314 314 313 312 309 307 305 305 306 306 305 303 301 301 301 300 296 293 295 294 292 291 291 290 290 290 291 292 293 294

GFSFLT2_850_thetae_009.txt.gz
Theta_e
319 318 316 316 316 316 314 312 309 308 309 312 316 315 316 316 315 315 314 315 314 313 312 311 311 311 309 308 308 311 313 316
315 313 311 311 313 311 309 308 308 310 315 318 316 316 315 313 313 313 313 314 314 315 313 313 313 313 313 311 308 308 310 313
316 315 310 308 309 309 312 313 313 314 316 316 317 315 313 312 312 312 313 314 315 315 314 314 314 313 313 314 314 312 309 308
319 316 316 316 313 316 318 318 318 316 316 315 315 314 314 312 313 313 314 315 315 315 315 316 316 315 315 316 315 314 313 312
323 318 320 322 323 321 322 321 321 320 317 313 313 313 313 313 313 314 314 315 315 315 316 318 318 317 315 318 318 316 317 315
327 319 321 322 323 325 324 324 324 321 320 314 312 313 312 314 314 315 315 317 316 315 315 315 314 315 314 315 317 316 317 317
328 321 319 321 323 326 325 325 325 326 324 318 315 316 318 316 317 316 316 314 313 312 312 312 312 312 312 312 313 317 318 317
328 325 319 322 323 326 327 327 327 326 322 320 321 319 320 320 320 319 317 316 314 313 313 312 312 312 312 312 313 315 316 313
329 325 321 322 326 327 328 327 326 323 320 321 321 320 320 321 321 319 317 314 313 313 312 312 311 311 312 314 313 314 313 312
330 323 326 326 327 327 326 326 323 321 321 322 321 320 320 319 317 314 313 312 312 312 312 311 311 310 310 310 310 309 309 311
330 328 326 324 325 325 326 321 321 321 320 320 319 318 317 315 313 312 312 312 312 311 310 309 309 309 309 308 306 304 304 303
329 327 327 326 324 324 323 321 321 320 316 315 314 313 312 312 312 312 309 310 310 309 308 307 306 306 305 304 304 304 303 301
328 328 326 324 324 323 322 322 316 314 312 312 312 312 312 312 310 308 308 308 307 305 305 304 303 303 302 302 302 300 300 299
325 325 324 322 321 321 319 317 313 312 312 312 312 311 310 309 308 307 307 306 304 302 301 300 298 297 297 297 301 300 301 302
318 319 321 321 321 317 312 312 312 312 312 311 310 309 308 307 306 305 304 303 301 300 298 296 296 296 296 299 300 301 300 299
314 313 313 313 313 312 312 312 312 311 311 310 308 307 306 306 303 303 303 300 299 297 295 294 295 296 297 298 298 298 298 298
315 314 315 315 314 313 312 312 311 310 308 307 306 305 304 304 304 305 302 298 298 298 298 293 296 297 297 297 297 296 297 296
315 315 315 314 314 313 312 311 309 308 307 306 305 305 305 305 304 301 300 299 299 299 296 294 295 295 294 294 293 294 294 294
315 315 314 314 314 313 313 310 308 307 306 305 303 302 302 301 301 301 300 299 294 292 292 291 291 290 289 289 288 289 290 291
314 314 313 312 311 308 307 306 303 302 303 303 303 301 302 301 300 298 294 292 291 290 289 289 289 288 288 288 287 288 289 290

GFSFLT2_850_thetae_012.txt.gz
Theta_e
323 322 321 320 317 317 315 313 310 310 311 315 315 315 314 314 312 312 312 312 312 312 311 311 311 311 311 310 309 308 308 309
320 317 315 315 315 314 310 309 309 311 317 316 317 316 314 312 312 312 313 313 313 313 313 314 314 312 312 312 312 312 311 310
313 311 311 312 312 309 309 309 311 316 316 316 315 314 313 312 312 312 313 314 315 315 315 315 315 315 313 313 312 312 312 312
315 312 309 309 309 312 313 314 314 315 316 316 315 313 312 312 313 313 314 315 315 315 314 315 315 314 314 313 313 313 314 315
317 316 316 314 315 317 317 318 315 318 315 315 314 313 312 313 313 313 314 314 313 313 313 313 313 313 312 312 312 311 312 315
321 316 319 322 321 321 321 321 320 321 318 313 312 313 313 314 314 314 314 314 314 313 312 313 312 312 312 312 312 312 313 315
323 318 319 321 323 325 325 325 325 324 323 318 315 316 317 317 317 317 317 316 314 313 313 312 312 312 312 311 312 314 314 314
327 324 322 326 326 327 326 326 326 326 325 321 321 319 319 320 320 320 318 317 315 313 312 312 311 311 311 311 312 312 312 312
329 329 324 327 325 326 326 326 327 326 324 322 321 321 320 321 320 318 317 315 312 312 311 311 310 310 309 309 309 309 309 309
329 329 326 326 325 323 325 321 325 325 324 323 322 321 320 318 317 316 313 312 311 309 310 310 309 309 308 308 308 308 306 304
329 328 326 325 323 325 324 325 322 322 322 321 319 318 315 314 312 313 313 310 308 308 309 308 307 306 306 306 307 305 303 303
328 327 325 326 324 324 323 320 318 319 319 316 314 313 312 313 313 310 308 308 307 307 307 306 304 302 302 302 302 302 301 301
326 326 326 325 323 320 320 320 318 315 312 312 312 312 311 310 309 308 308 307 306 305 303 302 302 301 300 301 301 300 299 297
324 324 323 321 321 321 317 313 312 312 311 311 312 310 310 309 308 308 306 304 303 303 303 300 297 295 294 293 296 295 297 298
318 318 317 317 314 311 313 312 312 311 311 311 310 310 309 307 307 306 305 305 304 303 300 297 297 295 293 295 297 297 297 295
313 313 313 314 314 314 313 313 313 312 311 310 309 308 306 305 305 305 304 305 301 299 298 297 297 294 293 295 297 297 297 296
314 314 314 314 314 314 313 313 312 310 309 308 307 305 304 302 300 302 301 301 299 298 298 297 293 292 292 291 291 291 292 295
315 315 314 314 313 313 312 311 309 307 305 304 305 302 302 300 301 301 300 299 295 293 292 290 290 289 289 289 288 288 289 290
314 314 314 313 312 312 309 307 304 302 301 302 303 302 301 300 301 302 300 296 294 292 291 290 288 288 287 287 287 287 287 287
313 313 312 310 308 306 304 302 300 300 299 297 298 299 300 301 300 300 299 297 297 293 289 288 288 288 287 287 287 287 287 287

GFSFLT2_850_thetae_015.txt.gz
Theta_e
335 331 324 322 321 319 316 313 309 311 313 313 314 314 313 312 312 312 312 312 312 312 312 312 312 311 310 310 310 310 311 311
327 323 323 321 319 317 313 311 310 312 315 315 314 313 312 312 312 312 312 313 313 313 314 314 314 313 313 313 312 311 310 311
321 318 318 317 315 313 311 310 311 317 316 315 315 313 312 312 312 313 313 313 314 314 314 314 314 313 313 312 312 312 312 311
315 313 313 314 314 311 310 311 316 318 316 315 315 313 312 312 313 314 314 314 314 313 313 313 313 312 312 312 312 312 312 312
314 310 311 311 310 312 314 316 318 317 317 316 315 314 313 313 314 314 315 315 314 314 313 312 312 312 312 312 311 311 311 312
316 314 312 311 314 318 320 321 319 320 317 317 317 316 314 315 315 315 316 316 315 315 313 312 312 312 311 311 310 310 312 313
319 319 320 318 321 323 324 324 325 325 324 319 316 317 317 317 318 318 319 318 317 316 313 312 311 310 310 310 310 311 312 312
324 322 322 323 324 326 325 325 326 325 325 324 322 321 319 320 320 320 320 319 317 314 312 310 309 310 309 309 309 309 309 310
328 327 324 325 326 326 325 324 323 322 324 324 321 321 321 320 321 320 319 314 312 312 308 307 308 309 309 309 308 308 308 307
328 328 327 325 326 323 321 325 322 322 323 323 321 321 320 319 317 315 313 313 310 309 308 307 308 308 307 307 307 307 306 305
328 327 327 326 324 323 322 325 324 322 321 320 318 316 315 313 312 313 313 310 309 308 307 306 305 305 304 304 304 304 303 302
327 327 327 326 325 324 324 322 318 320 320 317 314 313 312 312 310 309 309 309 308 307 305 304 303 303 303 303 302 301 300 302
326 326 326 324 324 323 321 320 319 313 312 312 311 312 312 309 309 308 308 307 306 305 305 305 304 302 299 298 297 296 298 295
326 323 323 321 321 320 313 311 312 311 311 312 311 311 310 309 308 306 305 304 304 304 303 300 298 297 296 297 298 298 299 297
320 318 318 318 313 312 313 312 312 312 312 311 311 309 307 306 305 304 301 301 301 301 299 298 299 298 295 296 297 297 297 297
313 313 313 313 314 313 313 313 313 312 311 309 307 306 305 303 301 300 299 301 300 299 299 298 295 294 292 294 291 294 294 293
313 314 314 314 313 313 313 312 311 310 307 305 304 305 304 301 299 297 298 301 300 299 296 296 293 291 292 290 291 291 292 293
314 314 314 314 313 312 311 310 308 305 303 302 301 300 297 296 296 298 299 299 300 297 295 296 294 291 288 288 289 289 289 290
314 314 314 313 311 308 305 302 300 299 299 297 296 295 295 294 297 300 300 299 297 295 297 293 289 288 287 288 288 289 289 289
313 313 312 308 304 302 300 299 297 296 296 295 293 293 292 292 294 299 300 299 296 297 294 289 288 288 288 288 288 288 287 288

GFSFLT2_850_thetae_018.txt.gz
Theta_e
335 334 332 329 323 322 318 314 310 312 311 310 314 315 313 313 312 312 312 312 313 313 313 314 313 313 312 312 312 312 318 317
335 333 330 326 323 321 317 313 311 313 314 313 315 314 313 313 313 313 313 314 314 314 314 314 313 312 312 312 312 318 317 317
333 334 333 332 331 320 316 312 312 316 316 317 316 323 320 316 313 313 314 314 314 314 314 313 313 318 315 312 316 316 317 316
328 326 325 328 329 316 314 313 320 325 324 319 324 317 320 318 313 314 314 315 315 314 313 314 318 317 317 315 316 315 316 316
325 322 319 325 325 324 322 322 323 321 319 320 320 317 318 322 322 321 316 315 320 319 319 318 314 314 314 315 313 313 314 314
315 314 316 315 321 321 318 324 322 325 320 319 320 325 321 320 321 321 317 318 317 317 318 315 313 312 310 310 310 311 311 312
316 313 312 312 316 319 322 323 324 325 321 318 318 319 317 318 319 319 319 319 318 317 317 315 314 313 312 310 311 310 309 311
319 318 318 317 324 324 325 325 326 326 326 325 322 320 319 319 320 320 320 319 317 315 314 313 312 311 311 310 309 309 309 309
324 322 322 322 324 325 319 318 322 325 323 322 323 322 320 321 320 320 316 316 313 313 311 311 311 310 310 309 309 309 308 308
327 326 324 324 324 323 320 319 323 324 322 323 322 321 320 319 318 314 313 312 311 311 310 309 309 308 308 307 307 307 306 307
327 328 327 326 323 324 323 321 322 321 320 319 318 316 314 312 312 312 310 309 309 308 308 307 307 306 306 305 305 305 305 306
327 328 327 327 325 324 324 322 319 319 318 316 313 312 312 312 311 309 308 308 307 307 307 307 307 306 305 304 304 303 303 304
325 326 326 325 325 324 321 319 320 317 313 312 312 311 311 309 308 308 307 307 307 306 306 306 305 304 303 301 301 301 303 303
326 326 324 323 322 321 320 318 314 312 312 312 311 311 309 307 307 307 307 306 306 305 303 302 302 302 302 301 300 300 300 301
326 323 322 321 317 313 312 312 312 312 311 311 310 308 307 306 306 305 303 303 302 302 302 302 301 301 299 299 300 299 298 298
320 319 317 315 312 314 314 314 315 312 310 308 308 307 305 305 303 299 299 300 301 301 300 299 298 298 297 297 297 297 296 296
314 313 313 312 312 313 313 312 311 309 308 307 307 306 305 304 303 301 301 301 301 300 299 297 297 297 297 296 294 294 293 293
313 313 312 312 313 313 312 308 306 305 304 303 301 300 300 300 301 302 301 300 301 299 297 297 297 295 293 293 292 292 292 291
312 312 312 311 310 306 303 302 301 301 299 298 297 297 297 297 297 299 300 299 299 298 297 297 294 293 292 292 291 291 291 291
311 311 310 306 304 302 300 299 297 298 297 296 296 296 296 296 297 298 299 299 298 297 297 296 294 293 292 292 291 291 291 290

GFSFLT2_850_thetae_021.txt.gz
Theta_e
337 335 333 330 328 323 320 315 311 313 310 309 315 315 313 312 312 312 312 313 313 314 314 313 313 313 313 312 318 318 319 319
335 334 333 328 324 323 319 314 312 312 311 313 316 314 313 314 314 313 313 314 314 314 314 313 314 319 317 315 317 317 318 318
334 335 333 332 328 322 317 312 312 316 313 316 317 325 324 322 318 314 314 314 314 314 314 314 319 320 318 316 317 317 317 316
334 332 332 331 330 321 325 318 321 327 326 321 327 326 326 325 319 314 315 315 315 316 317 320 320 319 318 317 317 316 315 315
330 329 328 329 328 326 324 324 327 329 329 328 328 327 327 325 325 324 324 322 323 321 321 321 320 319 317 317 316 315 314 313
336 333 328 329 326 325 325 327 328 328 328 328 329 327 328 325 324 324 323 323 322 321 321 320 319 317 316 316 315 314 313 313
329 329 329 328 326 328 329 328 328 326 326 323 322 327 321 317 321 323 323 322 322 321 320 318 316 315 315 314 314 313 312 312
330 329 327 326 329 330 329 326 325 325 325 324 324 320 317 321 319 323 322 321 320 318 316 315 315 314 313 312 312 311 311 311
330 329 328 330 327 324 319 319 318 320 323 325 324 322 322 320 322 321 320 317 316 315 315 313 313 312 311 310 310 309 309 309
331 329 330 325 324 322 321 321 320 320 323 323 322 322 322 321 319 318 317 313 313 313 312 311 311 310 310 309 308 307 307 308
333 331 330 323 325 323 324 321 320 322 320 319 318 318 317 317 316 315 311 312 312 311 311 311 310 310 308 307 307 305 306 305
334 333 330 327 325 324 323 324 323 320 319 317 316 314 312 313 313 311 310 311 311 311 311 310 309 307 305 306 304 304 303 303
333 329 329 327 327 327 326 322 320 319 316 314 312 312 311 311 311 311 311 311 310 309 309 308 304 303 304 304 303 303 302 303
330 329 327 328 327 325 323 322 319 316 314 312 311 311 311 310 310 310 309 308 307 306 305 304 303 302 303 302 301 300 301 301
331 330 328 325 324 323 321 318 315 315 314 313 311 310 310 309 309 308 307 305 303 303 304 304 302 301 301 300 299 299 299 299
328 326 324 323 319 317 317 317 318 315 313 312 311 310 309 308 306 305 304 303 303 303 302 302 300 300 300 299 300 299 298 297
323 322 318 317 317 317 316 316 314 312 311 309 307 305 303 302 301 302 304 303 303 302 302 301 299 300 299 298 297 296 295 295
318 316 316 316 315 315 314 312 309 308 305 303 301 300 299 299 299 299 300 301 302 302 301 300 299 299 296 296 295 294 293 293
317 316 315 314 312 309 308 307 303 302 301 300 299 299 298 298 298 298 299 300 301 300 300 299 299 297 295 295 294 294 294 293
315 315 313 310 308 306 304 310 308 302 300 299 298 298 297 297 297 298 300 300 300 298 298 298 297 296 295 294 294 294 293 292

GFSFLT2_850_thetae_024.txt.gz
Theta_e
330 333 333 331 329 324 319 312 311 311 310 309 315 313 312 312 312 312 313 313 314 314 313 314 318 318 318 316 318 317 318 320
333 334 332 329 325 321 317 310 311 311 310 315 314 313 313 313 313 313 314 314 314 314 314 315 320 320 318 316 317 316 317 316
332 332 329 324 321 320 315 310 312 312 313 317 325 324 325 327 319 313 314 314 314 315 317 320 320 320 319 317 317 316 315 315
331 327 328 330 323 318 313 312 321 320 317 326 328 326 327 325 321 320 321 320 321 322 322 321 321 320 318 317 317 315 314 314
333 331 330 331 325 323 322 325 329 329 326 328 328 324 326 327 324 325 324 323 323 322 322 321 320 318 316 316 315 314 314 313
329 327 329 328 324 324 325 327 329 329 326 327 325 327 328 324 324 324 324 324 322 322 321 320 318 316 315 315 314 314 312 312
322 328 330 326 326 325 328 327 327 327 327 321 323 328 326 321 317 320 318 322 322 321 320 319 317 315 315 313 312 312 311 311
319 328 321 326 326 326 325 323 323 324 325 325 322 322 318 319 318 320 321 322 321 319 316 315 314 313 312 312 311 310 309 309
329 327 323 329 326 326 324 319 319 320 320 322 325 324 323 322 322 321 321 320 318 314 314 313 312 311 310 310 310 309 308 307
329 327 328 329 326 321 319 320 320 320 320 321 323 322 322 322 320 319 318 315 313 312 311 311 311 311 310 308 308 307 307 305
330 329 329 327 321 319 322 322 321 320 321 320 320 319 318 318 317 315 312 311 312 312 312 311 310 309 308 306 305 305 304 304
332 330 328 325 323 324 324 323 324 323 320 319 316 313 312 313 314 312 312 312 312 311 310 309 308 307 303 302 304 304 303 302
333 331 330 328 325 325 325 324 321 320 318 316 314 313 312 311 312 312 311 311 310 309 306 304 304 303 303 303 303 302 301 301
333 330 330 327 326 326 325 322 320 318 316 313 312 312 312 311 311 310 310 309 306 303 303 303 304 303 302 301 302 301 300 300
332 329 328 328 327 324 323 321 318 316 314 313 312 312 311 310 309 307 304 304 304 303 303 303 303 302 300 300 300 300 300 299
330 328 328 326 324 323 321 318 316 316 314 313 312 311 309 307 304 303 303 303 304 303 303 303 302 301 300 300 299 298 297 296
330 327 325 324 319 319 319 318 316 314 313 310 307 306 304 301 301 300 299 298 300 301 302 302 302 300 299 299 297 296 296 295
325 323 319 318 318 318 317 315 313 311 308 307 306 302 300 299 298 297 295 298 299 300 301 301 301 300 299 298 296 295 294 294
321 317 317 317 317 316 315 313 310 308 310 308 304 299 298 297 296 295 296 297 299 300 301 301 299 298 298 296 295 294 294 294
317 317 316 314 312 310 309 308 311 311 308 300 297 298 296 296 296 295 295 297 299 300 300 298 298 298 297 296 295 294 294 294

GFSFLT2_850_thetae_027.txt.gz
Theta_e
332 332 328 327 329 320 315 310 311 309 309 313 312 311 311 312 313 313 314 314 314 315 315 318 320 318 317 317 316 316 317 316
326 324 331 331 324 318 312 310 310 309 312 312 312 311 312 312 313 314 314 314 314 316 319 319 321 319 318 317 317 315 315 314
325 330 329 327 320 316 311 310 310 311 315 313 314 319 320 320 313 313 314 315 319 321 321 321 321 320 318 317 316 315 314 313
326 329 327 323 319 314 310 312 312 316 324 324 322 318 321 319 324 324 322 323 323 322 322 321 320 319 317 316 315 314 314 313
328 327 328 324 317 312 319 323 321 319 325 327 325 322 322 327 326 325 324 324 323 322 321 320 319 318 315 315 314 313 313 311
329 330 330 323 320 324 325 324 323 321 329 329 327 325 325 326 325 324 323 323 322 322 321 320 319 318 315 314 313 312 311 311
332 330 328 324 325 326 327 327 329 327 324 327 322 327 327 324 324 322 319 319 322 321 321 320 319 316 313 312 312 312 311 309
328 328 327 325 325 326 327 327 328 328 326 324 326 323 321 320 318 317 320 320 322 321 319 317 315 313 313 311 310 309 309 309
326 329 326 326 325 326 327 322 324 325 325 323 324 323 323 322 322 322 320 320 319 316 313 312 311 311 310 309 307 308 308 307
320 322 325 327 325 324 324 320 318 318 319 320 320 322 323 322 322 321 317 313 312 311 311 311 311 310 307 305 304 305 305 305
325 322 327 327 324 324 321 320 320 321 320 321 321 320 320 319 315 312 312 311 311 311 311 311 310 306 305 303 300 302 303 302
326 323 326 326 325 322 320 323 323 323 321 319 317 314 313 311 311 311 311 311 311 311 311 309 303 302 302 301 301 304 303 301
329 328 327 328 325 320 324 324 322 320 319 317 312 312 312 312 312 312 311 311 311 310 306 301 301 300 302 301 300 297 300 300
331 331 329 328 324 321 325 323 320 319 319 315 312 312 312 312 311 310 309 306 303 301 301 300 301 303 303 302 300 299 299 300
331 331 329 326 326 326 325 321 320 319 317 313 312 312 311 310 308 306 304 303 302 302 301 300 303 302 302 300 300 299 298 298
331 330 326 325 326 327 324 322 320 318 315 313 312 311 309 308 306 304 302 301 301 300 301 300 302 302 302 300 299 299 298 296
331 327 328 328 328 326 322 320 317 316 314 312 311 309 310 309 305 300 299 297 295 295 297 301 301 302 301 300 299 298 297 295
328 328 326 325 323 323 319 319 316 314 313 313 310 310 308 302 299 297 295 294 294 295 298 300 301 301 301 300 298 296 296 295
330 327 324 324 319 319 318 317 316 315 313 310 312 307 300 297 295 295 294 294 294 297 299 299 300 299 297 298 297 296 295 294
325 324 323 320 319 318 317 316 314 312 310 311 309 301 297 295 294 294 294 293 294 297 298 298 297 298 298 297 297 296 296 294

GFSFLT2_850_thetae_030.txt.gz
Theta_e
332 331 331 329 323 316 310 311 309 308 311 311 311 312 313 314 314 314 314 314 315 317 319 319 318 318 317 317 316 314 314 314
326 325 323 321 321 313 310 310 309 309 313 311 311 311 313 314 314 314 314 314 317 320 320 320 320 319 319 317 316 315 314 313
323 319 325 327 319 312 310 310 309 314 312 312 311 312 313 312 313 315 317 319 322 321 321 321 321 320 320 317 315 315 314 313
324 322 328 324 317 311 310 309 312 313 312 314 315 321 319 323 322 323 322 323 322 321 322 321 320 318 318 316 315 314 313 313
326 329 329 322 315 310 311 311 319 322 323 322 321 323 324 325 324 324 323 323 322 322 321 320 318 318 317 315 314 313 312 311
329 326 325 319 314 311 313 313 323 327 326 325 320 323 323 326 325 324 323 323 322 322 321 320 319 318 318 315 313 312 311 310
325 327 322 317 314 319 321 322 322 324 325 326 326 327 324 325 324 323 319 319 322 322 321 320 319 318 315 313 312 311 310 308
327 326 323 324 325 324 324 326 324 322 326 328 323 324 326 325 323 320 318 320 320 321 320 318 314 312 311 311 309 307 305 308
330 328 324 324 325 326 326 326 329 328 326 325 323 322 322 320 319 322 321 320 319 317 313 311 311 310 310 310 305 303 306 305
329 327 325 325 325 326 327 327 327 326 323 319 319 319 321 323 323 322 319 314 311 311 311 310 310 310 309 302 300 300 302 302
328 327 325 325 326 327 327 325 322 321 321 320 320 321 322 322 320 317 313 311 311 311 310 310 310 308 302 300 299 301 304 303
324 326 327 324 325 325 325 322 320 322 321 320 320 320 318 313 312 312 311 311 311 310 310 309 304 300 299 298 300 300 302 301
317 317 322 323 326 324 324 320 323 323 322 320 317 313 311 311 311 311 311 311 310 308 304 300 298 297 299 301 300 299 299 300
323 319 319 322 325 324 322 321 324 323 321 319 313 312 311 312 312 311 310 309 306 301 299 298 298 298 301 302 300 299 299 298
329 328 328 325 326 326 321 323 323 321 319 318 314 312 312 312 311 311 311 305 300 300 299 300 300 300 302 302 300 299 298 297
331 330 329 328 328 326 320 324 321 320 318 317 313 312 312 312 311 311 308 302 300 299 296 296 298 300 301 301 301 300 299 298
330 330 330 330 326 322 323 321 319 319 318 316 314 313 313 310 312 308 302 299 297 294 294 295 298 301 301 301 300 299 298 297
332 329 327 327 325 325 324 322 321 320 317 314 314 313 308 307 302 302 298 295 294 293 293 297 299 300 300 298 298 297 297 296
330 329 326 327 327 327 327 325 324 320 316 314 313 308 308 308 300 296 295 294 293 293 294 295 298 298 297 297 298 297 297 296
328 327 327 325 326 324 321 320 318 316 314 313 309 307 300 298 295 295 294 293 293 293 293 294 296 297 297 296 296 295 295 295

GFSFLT2_850_thetae_033.txt.gz
Theta_e
329 330 327 318 313 312 310 309 308 310 310 310 312 312 313 314 313 314 315 316 317 318 318 318 318 319 317 316 315 315 314 313
331 327 321 316 314 313 312 309 308 312 310 311 312 313 313 313 314 314 315 316 318 319 320 320 320 320 319 318 316 314 312 312
325 322 320 318 317 315 311 309 309 313 310 311 312 313 313 313 314 314 315 320 320 320 320 320 320 320 318 317 317 313 313 312
322 322 320 320 315 311 311 309 313 312 311 312 313 314 313 314 316 320 321 321 321 321 321 321 320 319 318 316 315 313 312 312
321 322 327 321 314 312 310 311 314 313 314 320 320 319 322 322 322 322 322 322 322 322 321 320 319 318 317 316 313 312 311 311
321 328 326 321 313 311 310 314 314 317 319 321 323 322 322 323 323 323 323 322 321 321 321 319 319 318 317 314 313 312 311 310
322 328 325 319 312 312 311 322 323 323 324 323 321 320 320 324 324 323 322 319 320 321 320 320 319 316 314 313 312 311 308 306
325 324 322 319 313 315 313 321 324 324 326 325 325 323 324 325 324 323 321 319 320 321 321 319 315 312 311 310 310 306 302 304
323 325 322 318 316 321 321 320 321 322 325 327 325 323 325 324 323 321 321 321 320 318 314 311 311 310 310 309 304 300 299 299
325 325 322 319 323 325 325 326 326 326 326 326 324 324 323 322 320 321 321 319 314 311 311 310 310 310 307 301 299 298 300 301
327 326 324 324 324 325 326 328 329 329 326 321 320 320 323 323 323 322 320 312 311 311 310 310 309 304 299 298 298 300 301 303
326 328 326 324 325 325 328 329 328 325 321 321 320 320 321 322 321 317 311 311 311 310 309 305 301 299 297 296 298 299 299 300
328 327 326 324 325 326 328 327 323 321 322 321 320 320 320 317 312 311 311 311 310 308 305 300 299 297 296 297 298 298 299 298
329 327 325 325 325 325 326 325 323 322 321 320 318 316 313 311 311 311 311 310 309 307 302 299 297 296 296 297 300 299 299 298
322 321 321 324 325 325 326 324 322 322 321 321 317 313 312 311 311 311 310 310 309 308 301 298 295 295 297 299 300 299 299 298
323 319 319 320 323 326 326 324 322 322 323 320 317 314 312 311 312 310 310 307 306 301 297 295 294 295 298 301 301 300 299 298
325 324 323 322 323 327 327 324 322 322 322 318 316 314 312 312 311 308 304 304 302 296 294 293 294 296 299 300 300 299 298 297
327 328 328 326 326 327 327 323 321 322 320 317 316 314 313 312 308 305 303 303 295 295 293 293 294 297 298 298 297 297 297 297
328 329 328 328 328 329 327 324 321 323 319 318 316 314 313 308 304 302 306 299 298 294 293 292 293 295 297 296 296 296 295 295
329 329 329 328 328 327 325 323 324 323 321 318 315 313 308 303 301 304 300 295 294 293 292 293 293 295 295 295 295 295 294 294

GFSFLT2_850_thetae_036.txt.gz
Theta_e
331 328 326 318 312 310 308 308 310 311 310 311 312 313 313 313 314 315 316 317 318 318 318 319 319 319 318 316 315 313 311 310
330 329 320 314 311 309 308 308 311 310 310 311 312 313 313 313 314 315 316 317 318 319 320 320 319 319 319 318 317 313 311 310
328 318 313 313 311 309 309 309 310 310 311 312 313 313 313 314 314 315 316 318 319 320 320 320 320 319 318 318 317 313 311 311
320 318 316 315 316 314 313 310 310 310 311 312 313 313 313 313 314 315 319 320 320 321 321 320 320 319 317 316 314 312 311 311
322 319 319 318 317 313 311 308 312 311 311 312 313 313 313 315 319 320 321 321 322 321 320 321 319 318 316 314 313 311 311 310
323 321 320 317 314 311 309 311 313 311 313 313 316 315 317 321 321 322 322 322 322 319 320 320 319 317 316 314 312 311 310 309
320 321 321 319 312 312 309 314 313 314 321 323 322 321 322 322 322 323 323 322 319 320 320 320 319 317 314 311 310 310 309 305
326 327 324 317 312 312 311 314 318 321 323 323 320 321 322 322 324 324 322 320 319 320 320 319 316 311 310 310 309 307 301 299
323 327 326 320 314 312 311 319 324 324 323 324 325 323 323 325 324 323 323 320 321 319 317 312 310 310 310 308 303 299 298 299
326 324 324 321 314 316 312 322 324 324 324 325 325 324 323 325 324 322 320 321 319 313 310 310 310 309 306 300 298 298 299 300
324 323 324 320 314 322 323 320 322 324 323 324 325 324 324 325 322 321 322 319 312 311 310 310 307 302 299 297 297 298 298 299
325 325 323 320 319 324 326 326 327 327 327 326 322 320 320 323 323 322 319 312 311 310 309 304 300 299 297 297 297 297 298 299
325 325 324 323 323 324 324 326 327 327 326 323 320 320 320 322 321 317 312 311 310 308 304 300 299 297 296 296 297 298 298 298
325 326 326 325 324 324 325 325 326 326 323 321 321 320 320 319 316 312 311 310 308 306 303 300 297 296 295 296 297 298 299 298
325 325 325 325 326 325 325 326 326 323 321 321 321 317 316 314 312 311 311 308 307 305 300 296 297 296 294 296 298 299 299 298
325 324 324 326 325 324 324 325 325 324 322 321 319 315 313 311 311 311 309 307 305 304 299 300 301 296 294 295 297 299 300 299
326 326 325 327 325 325 325 326 325 324 322 320 318 315 313 312 311 310 308 307 306 307 306 308 304 294 293 295 297 298 297 297
327 326 325 325 325 325 325 326 326 323 322 320 317 315 315 313 311 309 305 305 308 310 312 299 294 293 293 294 296 296 296 296
328 327 325 323 323 324 325 325 326 323 322 321 318 317 316 313 311 310 304 305 311 307 296 295 293 292 293 295 295 295 294 294
328 328 325 325 324 325 324 325 326 323 322 321 319 317 316 313 311 305 307 311 309 300 295 294 292 292 294 295 295 294 294 293

GFSFLT2_850_thetae_039.txt.gz
Theta_e
330 327 325 312 310 308 308 309 311 309 310 312 313 314 315 316 316 317 317 317 317 318 319 319 319 318 318 317 315 311 310 309
330 328 322 312 310 308 308 310 310 309 311 313 313 313 314 315 317 318 318 318 319 319 320 320 319 319 318 318 316 313 311 310
329 324 313 311 310 308 310 311 310 310 311 313 313 313 314 314 315 317 318 319 320 320 320 320 320 319 318 318 316 312 311 310
326 320 313 309 309 309 311 311 310 310 312 313 313 313 314 314 315 315 319 320 321 320 320 320 320 319 318 317 315 312 311 310
321 319 315 313 310 315 317 311 310 311 312 313 313 313 313 313 314 318 320 321 321 321 320 320 319 319 318 317 314 311 310 309
317 316 316 317 318 317 311 312 311 311 312 313 313 313 313 315 318 320 321 322 322 320 320 320 319 319 318 314 311 310 309 308
318 317 318 318 317 312 309 310 311 311 312 313 313 313 314 320 322 323 323 322 320 320 319 320 320 318 313 310 310 309 306 302
320 320 317 317 316 313 309 313 312 311 313 315 317 320 322 322 322 323 323 321 320 319 320 320 318 311 310 310 308 303 300 299
319 318 318 321 315 313 310 314 313 314 321 322 322 321 322 322 323 324 322 321 320 320 319 314 310 310 310 306 300 299 298 298
325 327 326 320 315 312 310 314 317 321 323 324 323 323 321 322 324 323 322 320 320 319 312 310 310 309 303 299 298 297 297 298
323 324 325 322 318 313 312 315 321 325 325 324 323 323 323 324 324 323 320 320 319 312 310 310 308 302 300 298 297 297 298 299
322 324 323 325 323 315 317 313 322 321 323 322 323 323 323 323 324 322 322 320 314 311 310 308 303 300 297 297 296 297 298 298
326 326 323 324 321 315 322 323 321 324 324 324 324 323 320 320 322 322 321 317 311 310 308 306 302 298 297 298 298 297 298 298
326 326 324 324 322 319 322 325 325 326 325 325 324 321 320 320 321 321 318 311 311 308 308 303 298 298 299 300 300 299 298 298
326 325 324 324 324 323 323 324 324 325 325 325 322 320 320 320 320 317 312 311 309 308 305 303 304 301 300 299 299 300 297 298
324 326 325 325 326 326 325 324 324 324 325 324 321 320 319 318 316 313 311 310 308 305 307 304 307 306 305 297 295 295 299 299
323 324 325 326 325 326 325 326 325 325 325 322 321 319 318 316 313 311 311 309 306 306 309 310 310 306 296 295 294 294 295 297
326 325 325 326 324 324 326 326 325 325 325 323 322 319 317 315 312 312 311 308 305 307 310 312 304 298 297 294 294 296 297 297
328 327 327 326 326 326 326 326 326 325 325 324 323 321 318 316 314 313 310 307 305 309 311 307 298 295 295 294 293 294 294 295
327 329 327 327 324 324 325 325 325 326 325 325 323 321 320 316 314 311 308 305 307 309 306 301 294 297 294 292 293 293 293 293

GFSFLT2_850_thetae_042.txt.gz
Theta_e
327 325 320 317 310 308 308 309 310 309 311 313 313 313 314 315 315 315 316 317 318 318 319 319 318 318 318 316 313 312 318 319
327 325 321 314 312 308 308 309 309 310 312 313 314 315 316 316 317 317 317 318 319 319 320 319 319 318 318 317 314 316 318 318
328 325 320 315 310 311 310 310 309 311 312 314 315 318 318 320 318 318 318 319 320 320 320 319 319 319 318 317 315 315 316 316
327 324 317 315 315 318 316 311 310 312 313 313 320 321 321 319 317 318 319 320 320 320 320 320 319 318 317 315 314 313 314 314
322 315 314 315 312 314 312 311 311 312 313 315 320 318 315 320 317 319 320 321 321 320 320 319 319 317 318 315 312 311 311 310
321 321 318 312 312 311 311 313 313 312 316 319 314 318 315 317 323 323 321 321 322 320 320 320 319 319 317 311 310 310 309 307
315 312 310 310 310 315 316 313 311 313 317 313 318 318 314 317 318 322 322 322 322 320 319 319 319 318 311 310 310 306 301 303
316 313 314 315 316 315 313 311 310 316 319 314 313 313 313 319 321 322 323 322 320 319 318 318 317 312 310 310 304 301 300 299
316 315 318 320 320 315 310 315 318 319 313 314 315 314 319 321 322 323 323 322 321 320 320 318 312 310 310 306 303 301 299 298
322 320 319 320 320 318 318 321 319 318 319 314 321 323 322 322 323 323 323 322 320 320 317 312 311 310 306 304 302 301 298 299
322 319 319 323 322 314 312 313 317 321 319 322 323 322 322 323 323 323 323 321 320 319 314 311 310 307 305 304 303 303 301 301
323 321 325 325 324 317 319 317 321 324 323 324 324 324 323 323 324 324 323 320 320 317 311 310 308 306 303 304 305 303 302 302
326 326 326 326 326 324 321 320 322 325 324 325 323 323 323 323 323 323 322 320 318 315 311 309 308 304 307 307 306 304 303 302
327 327 327 327 328 327 322 323 322 324 322 322 324 323 324 321 321 321 322 320 318 311 310 308 305 309 308 307 310 306 303 302
327 328 330 328 329 327 324 325 327 325 324 325 324 324 324 321 321 321 321 319 314 311 309 308 307 308 309 306 306 306 304 303
327 328 330 329 329 328 326 324 325 326 324 324 324 324 322 321 321 321 320 317 312 311 310 308 310 311 311 308 301 302 302 303
327 328 330 329 328 328 328 327 326 327 324 323 324 324 321 320 320 319 317 314 312 310 309 308 312 312 308 303 303 302 302 301
326 326 327 329 329 327 327 326 328 326 324 324 324 323 321 320 317 316 314 312 311 309 306 308 311 307 302 301 301 302 301 300
328 326 326 326 325 322 323 324 325 325 324 324 325 324 322 320 317 315 312 311 310 307 306 309 306 303 299 301 301 300 299 299
330 328 328 326 325 325 325 324 325 326 324 323 325 325 322 321 318 316 313 311 308 305 306 308 300 295 299 299 299 300 299 298

GFSFLT2_850_thetae_045.txt.gz
Theta_e
327 327 322 318 313 309 308 308 309 310 311 314 315 313 313 314 315 315 316 316 317 319 319 318 319 317 315 312 315 319 320 320
327 325 321 314 309 308 308 309 310 310 312 313 313 314 314 315 315 317 318 319 319 319 319 319 319 318 315 314 317 318 319 319
327 327 322 317 311 308 309 311 309 312 313 313 315 315 316 319 318 317 318 319 320 320 320 320 319 318 316 315 316 317 316 317
327 326 320 312 314 317 314 313 313 314 314 315 317 316 322 323 318 318 319 320 320 320 320 319 320 318 316 316 315 315 314 314
326 323 319 312 312 311 313 316 320 314 316 319 319 322 323 319 318 319 320 321 320 320 319 320 320 318 317 315 314 314 313 311
324 320 316 317 318 317 317 319 314 315 318 323 321 324 322 323 323 324 323 323 321 321 321 320 320 319 313 312 312 312 309 308
318 318 316 316 315 314 317 317 314 316 317 323 323 323 323 324 325 325 325 324 323 321 320 319 320 317 314 313 310 308 306 306
317 315 315 315 315 315 313 315 316 321 322 321 323 323 323 324 325 325 324 323 323 321 320 319 318 315 313 311 309 306 306 303
317 317 316 313 312 311 312 315 318 321 320 321 322 323 323 325 326 325 324 323 322 321 320 319 317 314 312 310 307 306 306 303
316 314 312 314 315 315 316 318 319 318 321 324 324 325 326 325 326 325 324 323 322 321 320 319 315 314 311 309 308 307 306 305
318 316 318 319 320 323 321 320 321 320 321 324 325 326 325 324 326 325 323 322 322 321 320 317 315 311 310 308 309 308 306 305
320 320 322 322 323 324 322 320 322 322 322 325 326 326 322 322 325 324 323 322 322 320 318 315 312 310 308 307 309 309 307 306
324 323 322 323 324 324 322 320 320 322 324 326 327 327 324 324 325 324 323 322 321 319 317 313 311 309 310 313 312 310 309 306
325 325 325 326 327 327 324 322 320 322 324 326 325 326 326 324 325 324 322 321 320 318 315 313 312 309 312 313 314 312 309 307
326 326 327 327 328 327 326 323 322 322 324 326 325 326 326 325 325 323 322 320 318 318 316 312 311 311 311 313 311 311 308 308
328 328 328 327 327 328 327 323 325 327 325 325 327 327 326 325 324 322 320 319 318 316 314 311 310 311 312 312 310 307 306 307
329 329 328 329 329 328 328 327 326 327 327 327 327 327 325 323 322 320 320 319 316 315 311 310 310 309 312 310 307 307 306 306
329 329 329 329 330 329 330 329 327 327 327 327 326 325 322 322 321 321 321 319 315 313 310 309 308 308 310 306 306 305 306 305
328 328 327 329 330 328 328 328 325 324 327 328 325 324 322 321 321 322 320 319 314 312 310 309 306 307 306 305 304 304 304 303
330 330 329 329 331 330 319 322 322 321 321 323 325 324 323 321 320 322 320 316 314 311 310 306 306 308 302 302 303 303 302 302

GFSFLT2_850_thetae_048.txt.gz
Theta_e
332 336 336 334 332 323 313 308 308 310 310 314 316 316 316 316 316 315 315 316 318 318 318 318 314 312 314 318 320 320 320 319
330 332 331 327 323 317 310 309 310 310 313 316 315 315 315 315 315 316 317 319 319 319 319 318 315 312 316 317 318 318 319 320
328 327 326 326 320 314 313 310 311 315 317 315 314 315 315 315 317 318 318 319 319 320 320 319 316 313 315 316 316 316 316 316
326 327 324 322 322 311 310 312 316 316 314 314 315 315 316 316 317 318 319 320 319 320 319 320 320 318 316 316 314 314 313 313
326 325 323 320 318 313 314 313 313 315 315 316 317 319 321 318 317 318 319 320 320 319 320 321 320 318 314 313 313 313 312 311
325 324 321 318 317 315 313 312 316 317 322 321 322 323 322 318 318 319 320 321 320 321 321 321 320 318 312 312 311 311 308 308
324 321 318 318 315 314 315 316 317 320 319 322 318 319 321 320 323 324 322 323 322 322 322 320 320 316 312 312 310 309 307 306
319 315 313 312 315 318 317 317 314 316 316 316 321 323 324 324 325 325 324 325 323 322 321 320 319 315 312 311 310 309 309 305
318 316 318 316 316 315 313 314 315 316 317 323 322 324 323 323 324 325 325 324 323 322 321 320 319 315 314 311 310 312 310 308
318 317 317 317 316 316 314 317 313 318 321 321 321 323 323 325 325 326 324 323 323 322 321 320 318 315 313 310 308 309 309 309
318 318 317 316 314 314 313 315 315 314 311 314 320 320 325 323 326 325 325 323 323 322 321 320 317 315 312 311 309 310 309 308
317 316 315 313 312 315 319 320 321 321 321 321 323 323 321 322 324 325 323 323 323 322 321 319 317 314 311 308 307 311 311 310
316 315 314 314 314 314 321 321 321 320 321 321 324 323 321 322 323 325 323 323 323 322 321 318 316 313 311 310 313 313 313 311
318 318 320 320 319 321 323 322 319 321 322 323 325 326 324 323 323 326 324 323 323 322 320 319 316 313 311 313 313 313 311 311
324 322 321 322 322 321 325 322 321 320 322 323 325 326 324 324 324 325 325 323 322 321 320 318 314 312 310 311 313 312 311 309
325 325 324 322 324 326 325 325 323 321 321 325 325 324 324 324 326 325 325 323 321 321 320 318 313 312 312 311 312 311 308 307
325 326 325 326 325 329 327 327 323 323 323 323 325 325 324 326 326 325 324 323 321 320 318 317 313 311 312 312 311 309 308 307
327 326 326 328 327 325 328 327 326 325 328 327 326 326 326 326 326 324 324 322 321 318 317 314 312 310 310 310 309 307 306 306
329 329 329 329 329 329 327 328 327 326 326 327 327 321 322 324 323 323 322 321 320 317 315 314 311 309 309 308 308 305 305 305
329 329 328 329 329 330 329 322 322 320 324 326 325 323 319 322 324 322 321 321 319 317 315 313 310 311 306 307 307 304 304 305

GFSFLT2_850_thetae_051.txt.gz
Theta_e
330 328 328 325 333 328 319 309 308 309 310 314 316 317 317 315 315 315 317 318 318 318 314 311 311 318 320 320 320 320 320 320
334 335 335 334 328 323 311 308 308 310 313 316 316 317 316 316 315 316 319 318 319 318 315 311 315 318 319 318 316 319 319 318
336 335 334 326 321 315 310 310 310 313 316 316 317 317 317 315 316 317 319 319 319 319 316 313 313 315 315 317 315 315 315 315
333 333 332 329 325 319 308 311 313 317 316 316 316 315 315 316 317 318 319 319 319 319 319 319 317 316 314 315 314 313 313 312
330 329 327 326 319 310 311 312 317 317 315 315 315 315 316 317 318 319 319 319 319 320 320 320 319 317 315 313 313 313 312 310
328 327 325 322 316 311 311 316 315 316 316 315 315 317 317 317 318 319 319 320 319 320 321 320 319 318 312 312 311 311 309 308
327 325 323 318 315 310 311 312 314 316 318 321 318 316 318 317 317 318 320 321 320 321 321 321 320 319 311 312 311 310 308 307
324 322 320 315 312 314 315 315 315 321 320 318 317 321 319 318 322 323 323 323 323 322 322 321 320 317 311 312 311 310 307 309
322 323 318 315 318 315 314 313 319 320 319 317 320 322 321 324 324 324 325 324 324 323 322 320 319 318 314 312 311 310 312 312
319 319 319 317 316 318 317 318 319 317 315 316 318 320 322 323 324 324 323 324 324 323 321 321 319 318 314 313 311 311 312 311
319 318 317 316 317 318 317 315 314 314 315 316 317 323 324 323 324 324 324 324 323 323 322 321 320 316 314 313 311 310 309 312
318 319 314 316 318 317 316 313 313 314 316 316 317 318 322 322 323 322 324 323 323 323 322 321 320 317 315 312 311 307 311 313
318 319 317 316 317 315 314 316 317 315 315 314 315 315 316 319 322 323 324 321 322 322 322 321 320 317 315 312 308 309 313 314
318 317 317 316 314 313 314 315 318 319 315 318 321 321 321 322 320 321 323 321 323 323 322 322 320 318 315 312 311 313 313 313
316 315 315 314 314 314 316 321 322 320 319 320 321 321 324 323 323 320 322 321 323 323 323 322 320 319 316 313 313 313 311 311
318 316 315 315 316 316 317 322 324 321 318 320 322 324 324 324 322 322 323 324 323 323 322 322 320 318 314 312 310 311 312 309
322 319 319 319 319 320 320 321 323 322 321 319 321 322 323 323 322 322 324 324 325 323 322 321 320 316 313 312 311 311 311 308
323 324 323 322 318 321 323 323 325 324 323 322 320 323 324 324 321 322 323 325 324 323 322 321 319 317 314 312 312 312 309 308
325 324 324 324 323 323 324 326 326 326 324 323 324 323 325 324 321 323 323 323 323 323 322 320 318 315 313 311 310 310 306 308
327 326 325 325 325 326 326 324 325 327 323 326 326 325 325 323 320 323 323 323 322 322 321 319 317 315 312 311 309 307 307 307

GFSFLT2_850_thetae_054.txt.gz
Theta_e
334 335 336 335 329 325 322 313 309 310 315 317 315 314 314 315 315 315 316 315 311 313 318 318 319 319 320 320 320 320 318 317
335 335 331 329 328 327 321 310 309 311 316 318 317 315 314 315 316 318 318 318 314 311 312 318 320 318 319 318 318 317 316 314
330 330 329 331 328 324 316 310 311 315 317 317 317 316 315 315 318 318 319 318 316 311 314 316 319 318 318 317 315 315 314 311
333 331 330 328 325 321 313 309 311 318 318 318 317 316 315 316 318 318 319 319 317 314 314 314 314 315 315 315 314 313 312 310
333 332 331 327 326 322 310 312 317 317 317 317 316 315 316 317 319 319 319 319 318 318 319 317 315 314 313 313 312 312 311 309
332 329 327 326 322 312 315 314 317 316 316 316 315 316 317 317 318 319 319 319 319 320 320 319 318 317 312 312 312 311 309 309
331 328 325 319 312 312 315 317 317 316 315 315 315 317 315 315 318 318 319 319 319 320 320 320 320 319 314 312 311 310 309 310
329 327 324 316 313 318 317 317 316 315 315 317 317 315 315 316 315 316 319 320 320 321 321 321 320 319 313 312 311 310 312 312
327 327 324 318 316 317 317 317 316 315 319 320 315 315 318 317 318 321 321 322 322 323 322 321 320 319 315 312 311 311 312 312
326 323 321 319 313 314 318 318 321 319 321 318 316 316 316 321 322 321 322 323 324 324 323 322 321 320 319 315 312 311 311 311
323 320 318 314 313 317 318 317 317 319 317 316 317 319 322 322 323 322 323 324 324 323 323 322 321 320 317 315 315 312 309 309
321 321 317 316 318 317 315 314 318 319 317 316 316 321 323 321 322 323 322 323 324 323 323 322 321 320 317 315 314 312 309 308
320 320 319 317 316 314 314 313 317 316 315 315 316 319 320 318 322 322 321 321 321 323 322 322 322 320 318 315 313 311 309 309
318 319 318 316 316 317 317 317 316 315 316 315 316 316 316 315 315 317 317 318 319 322 323 322 322 321 319 316 313 311 309 310
319 318 317 316 318 317 316 316 314 315 314 314 315 315 315 317 319 318 319 321 320 322 322 322 322 322 320 317 312 312 312 312
318 319 317 316 318 316 316 315 315 316 315 314 314 314 316 320 321 323 323 321 320 321 322 322 322 322 320 319 315 313 312 311
317 317 318 318 316 314 314 314 316 317 317 315 315 314 319 321 321 324 323 321 321 321 322 322 323 322 321 320 313 310 311 311
316 314 316 317 315 314 314 316 319 319 317 320 318 316 321 322 323 322 321 322 321 322 323 323 323 322 321 318 316 315 311 311
317 317 316 315 315 316 318 319 318 319 322 322 321 319 319 321 322 323 322 321 321 321 322 323 322 321 320 318 316 314 312 312
321 320 319 318 318 318 318 319 319 319 322 325 324 322 322 321 322 324 321 322 322 323 323 322 322 321 319 318 316 312 312 311

GFSFLT2_850_thetae_057.txt.gz
Theta_e
335 331 329 330 326 324 321 318 312 322 326 318 314 313 313 312 311 313 319 320 317 319 319 320 320 320 319 319 317 315 313 310
332 334 334 332 326 324 322 312 314 322 324 315 315 314 313 312 312 311 315 318 317 319 319 319 318 318 318 317 315 314 311 309
332 332 332 331 327 325 315 314 317 320 322 315 315 314 314 315 316 315 311 312 315 317 318 319 319 318 317 315 314 312 310 308
332 332 330 328 326 325 316 311 316 322 322 318 315 315 316 317 318 318 314 311 311 315 318 318 318 316 315 314 312 311 309 308
331 330 330 328 324 317 315 313 314 317 319 317 316 315 317 318 318 318 317 314 312 314 316 316 313 312 313 313 312 311 309 309
330 330 329 326 324 322 319 314 316 317 319 319 316 316 318 318 319 318 318 317 316 316 316 315 314 313 312 312 311 310 309 310
330 330 327 326 325 324 316 312 313 315 320 319 315 316 318 318 318 319 319 319 319 319 319 318 318 317 314 312 311 310 309 310
329 328 326 325 323 318 314 315 316 320 319 317 315 317 317 318 319 319 319 319 319 320 320 320 320 319 318 312 311 311 311 311
327 327 326 326 324 315 318 322 322 320 318 316 316 316 316 316 318 319 319 319 320 321 321 321 320 319 318 311 311 311 311 311
328 325 323 320 317 317 319 319 318 316 315 316 316 315 316 317 317 318 319 321 321 322 322 322 321 320 318 318 313 311 310 310
325 324 325 320 316 318 320 317 315 319 320 317 317 318 316 318 319 321 321 322 322 323 323 322 322 321 320 318 315 314 312 310
324 322 323 323 321 319 319 321 318 320 318 315 318 320 318 319 319 320 320 321 321 323 323 323 322 321 321 319 316 314 313 311
322 321 320 319 315 314 319 321 321 316 316 321 320 318 317 319 322 319 319 321 320 322 323 323 322 321 321 319 317 314 313 312
320 321 319 315 314 318 319 322 321 317 316 316 319 319 319 320 321 321 322 321 321 321 322 323 322 322 321 320 317 315 314 312
318 320 320 315 313 314 317 317 316 316 317 316 316 317 319 318 315 316 316 316 319 319 320 322 322 322 322 321 315 315 315 315
318 319 320 318 317 317 316 314 315 316 316 317 315 315 315 316 315 315 316 319 318 318 319 319 322 322 322 321 318 318 315 312
319 318 319 318 317 317 316 314 315 314 315 316 315 315 315 315 315 313 319 322 323 323 321 320 321 322 322 322 320 318 316 313
318 319 319 318 318 317 317 317 317 316 316 315 315 314 314 315 313 314 320 321 322 323 323 322 322 322 322 322 322 320 318 318
316 317 318 318 318 318 318 317 317 316 314 314 314 314 314 314 314 315 321 323 322 321 321 321 321 320 322 322 321 321 319 317
316 315 315 317 318 317 315 315 316 314 315 316 315 315 318 318 316 319 321 322 322 322 321 321 321 321 322 321 320 319 318 317

GFSFLT2_850_thetae_060.txt.gz
Theta_e
333 332 330 329 329 328 323 325 321 312 313 316 315 313 314 314 315 317 317 319 319 320 320 319 319 318 316 314 312 310 308 307
332 332 331 331 331 329 327 322 318 323 315 315 314 311 312 314 318 319 319 318 319 320 320 319 318 318 315 313 312 309 307 307
331 333 333 331 328 326 325 321 319 324 318 314 312 312 313 317 319 319 318 318 318 318 318 318 317 316 314 313 311 309 308 308
331 332 330 328 325 325 324 321 318 318 318 315 312 312 311 316 318 318 317 317 318 317 318 318 317 315 314 312 311 308 309 311
328 329 327 328 326 321 318 318 319 320 318 315 313 313 312 311 311 312 315 316 317 317 317 317 314 313 313 312 311 308 310 311
326 327 325 325 326 321 319 315 318 322 317 315 314 313 316 317 314 311 310 311 314 314 316 314 312 312 312 312 310 309 310 311
329 326 325 327 320 316 316 317 319 319 318 316 315 316 318 318 316 314 312 312 312 313 314 313 313 312 311 311 310 309 310 311
330 329 327 326 324 321 318 317 316 317 318 317 315 317 318 318 318 318 317 316 318 319 319 318 319 319 316 311 311 309 310 311
328 329 327 322 321 321 314 313 314 318 315 318 315 318 318 318 319 319 319 319 319 319 320 320 320 319 318 312 311 310 310 311
327 326 326 322 321 317 318 316 318 317 317 319 316 318 318 318 318 318 319 319 319 320 321 321 321 320 319 316 313 311 310 310
326 326 326 325 323 320 316 313 312 317 319 316 316 317 317 318 317 316 319 320 319 320 321 322 322 321 320 319 318 315 313 312
326 325 325 324 324 318 318 316 319 321 320 317 316 316 316 317 317 318 320 321 321 321 321 321 322 322 321 320 320 317 315 315
323 324 325 320 323 315 322 321 322 319 317 317 316 318 317 318 319 316 320 320 320 320 320 321 322 322 321 321 320 319 316 315
321 322 323 319 317 321 317 319 317 317 318 318 319 318 319 317 317 317 319 319 319 318 319 321 322 322 321 321 320 320 319 318
319 319 321 322 316 320 320 318 317 317 320 317 315 316 319 319 317 319 320 322 319 319 319 319 320 322 322 321 319 319 318 318
318 319 320 320 320 317 318 316 317 319 317 315 317 315 319 317 318 316 315 315 315 315 316 318 319 320 321 321 321 320 318 317
319 319 320 320 318 317 316 317 319 320 317 315 315 316 316 317 317 317 316 315 316 316 320 320 320 322 322 322 322 320 320 317
319 319 319 319 318 316 316 318 318 320 318 317 316 314 315 316 315 315 315 315 314 316 320 321 322 322 321 321 320 319 319 319
317 319 319 319 318 316 317 315 316 316 316 315 315 315 315 316 315 315 315 315 313 315 320 321 321 321 322 321 318 319 321 320
316 317 319 319 318 317 317 317 316 315 315 314 313 313 316 316 315 314 314 315 314 315 320 321 322 322 321 321 320 321 320 321

GFSFLT2_850_thetae_063.txt.gz
Theta_e
329 327 327 326 326 327 328 322 322 318 319 316 314 315 320 325 319 319 319 318 318 317 316 317 314 313 312 310 308 308 307 308
330 327 327 327 329 327 328 327 323 321 318 316 314 315 321 321 319 318 320 320 319 318 318 317 315 314 312 309 307 307 308 308
332 331 328 328 330 328 326 324 324 321 317 316 315 319 320 319 319 319 319 320 320 319 318 317 314 313 311 309 308 309 310 310
330 331 332 331 329 327 321 322 316 316 315 316 315 315 316 319 318 318 319 320 320 318 317 316 314 313 311 309 309 310 311 312
324 327 331 330 330 324 326 325 322 319 320 314 313 316 318 319 318 318 318 318 318 318 317 316 314 312 311 310 309 311 311 312
328 329 327 327 326 326 327 322 320 321 318 314 312 315 318 319 318 317 317 318 317 318 317 314 313 312 312 310 309 311 311 311
325 326 326 326 323 324 324 320 322 320 318 313 312 314 317 318 318 317 317 317 316 317 314 312 312 312 312 311 309 310 311 311
325 323 325 326 323 324 322 319 318 318 317 315 312 311 311 312 312 312 314 314 315 315 313 312 313 312 311 311 310 309 310 311
326 324 325 326 323 321 320 321 321 318 317 316 313 314 316 314 312 312 313 313 316 317 316 318 319 319 315 311 310 310 310 311
326 327 326 326 322 321 317 318 320 318 319 317 314 317 318 316 315 313 314 317 319 319 320 320 319 319 318 315 311 310 310 310
326 326 327 324 321 317 317 318 319 318 317 317 315 317 318 318 318 317 318 319 319 320 320 321 321 320 319 318 318 315 313 310
326 324 325 324 323 322 318 319 318 318 316 315 317 316 317 318 318 319 319 319 319 320 321 321 321 321 321 321 320 320 317 315
324 325 325 324 319 318 316 315 315 319 319 317 319 316 317 318 318 318 319 319 319 320 320 320 321 321 321 321 321 320 320 318
324 325 324 324 321 321 319 318 316 316 319 320 317 318 317 317 318 318 319 319 317 320 319 320 321 321 322 321 320 320 321 321
322 323 324 324 323 322 317 318 322 316 320 318 316 317 316 317 317 318 320 320 318 319 320 320 319 318 320 321 320 320 320 320
320 322 323 322 321 321 316 321 315 321 322 321 319 317 318 319 319 316 319 318 319 319 318 319 318 318 320 321 321 321 320 320
319 319 320 321 321 319 320 314 318 319 318 317 317 320 319 318 316 317 317 317 317 316 316 318 319 319 320 320 321 321 321 320
319 319 319 320 321 318 320 315 319 318 319 317 319 317 315 315 315 317 316 316 315 315 315 316 318 321 321 322 322 321 321 320
318 319 320 320 319 319 320 317 320 317 315 316 318 316 316 315 315 317 317 316 315 315 315 315 315 318 320 321 319 322 321 318
317 319 320 320 319 319 320 319 318 315 315 315 318 316 316 315 315 316 316 316 316 314 314 314 315 317 318 320 319 320 321 320

GFSFLT2_850_thetae_066.txt.gz
Theta_e
334 331 325 329 329 330 330 328 332 332 327 325 322 316 318 320 323 324 326 312 311 309 307 308 309 309 309 308 311 319 320 320
332 331 329 329 329 330 330 332 333 330 325 322 317 314 315 318 315 322 314 315 315 315 313 312 311 310 308 308 309 318 320 320
332 331 329 329 330 328 328 328 329 327 323 318 317 323 314 316 317 317 317 317 317 317 315 313 311 309 307 308 318 319 320 320
330 331 328 327 329 328 328 328 327 323 321 319 316 323 320 323 318 319 319 319 318 317 315 313 313 309 308 314 318 320 321 320
330 331 331 327 327 327 328 329 326 324 318 317 320 323 325 319 318 320 320 319 319 318 315 317 318 316 314 317 317 320 320 319
326 325 325 329 327 328 328 328 325 321 322 317 321 325 321 320 323 324 323 322 321 320 320 320 318 317 316 311 318 319 320 320
326 325 326 325 327 328 329 325 323 321 318 317 321 320 319 319 324 324 324 324 323 322 321 318 317 316 314 313 317 318 319 319
324 326 326 326 326 325 325 322 319 320 319 316 320 315 317 318 319 321 322 324 323 322 320 318 318 317 314 313 313 316 316 319
324 324 326 325 325 324 324 324 322 324 320 318 315 312 313 318 318 318 320 321 320 320 318 318 317 316 312 311 310 310 313 313
324 323 323 325 324 324 324 323 320 319 319 315 312 314 315 318 317 318 319 315 317 314 317 319 318 317 314 311 311 310 310 311
325 325 326 325 324 323 323 322 319 318 315 317 312 312 313 313 313 314 313 314 316 317 318 319 318 317 316 314 313 312 310 310
326 326 326 325 323 322 321 320 319 318 316 320 312 315 316 315 313 312 314 316 321 320 320 320 320 318 316 318 319 318 316 314
326 326 326 324 323 321 319 320 321 317 319 320 313 314 316 315 315 314 314 319 321 320 320 321 321 320 319 320 321 320 320 319
325 325 324 325 323 320 320 318 321 318 317 321 317 315 316 318 318 318 318 318 319 319 320 320 321 320 321 322 322 320 321 321
325 324 325 325 324 321 320 318 319 319 317 316 316 317 316 317 318 318 319 319 319 320 320 319 322 321 321 321 322 321 322 320
324 324 324 324 324 322 320 319 317 321 319 317 315 315 320 317 317 318 318 318 319 320 320 320 320 321 321 320 321 321 320 320
322 322 323 324 324 321 321 318 317 319 320 319 315 317 320 317 317 317 317 318 319 319 321 320 317 317 321 320 320 321 321 321
321 321 322 323 323 323 322 320 319 319 320 317 319 318 318 317 317 316 319 317 317 317 318 318 317 317 318 322 322 322 322 322
320 321 321 321 322 322 322 320 317 321 317 315 320 318 316 316 317 318 317 317 316 317 317 316 316 316 316 317 317 320 321 320
320 321 321 320 321 321 320 320 319 320 314 320 320 319 318 318 317 318 317 315 316 317 317 319 316 316 319 317 317 317 314 318

GFSFLT2_850_thetae_069.txt.gz
Theta_e
338 338 333 331 329 325 324 334 334 330 327 323 323 324 325 324 322 315 310 308 308 308 308 308 307 307 310 318 321 322 322 321
336 336 335 330 327 324 327 333 332 331 326 324 325 325 323 321 324 323 309 309 309 308 307 307 307 308 310 318 320 321 322 321
333 335 335 333 331 329 330 325 333 331 327 326 325 324 323 323 326 324 311 310 308 308 310 310 309 308 312 319 321 322 321 321
333 333 333 333 333 331 330 332 331 331 329 325 322 322 325 324 325 319 313 314 313 312 312 310 309 308 318 320 322 322 322 320
332 332 332 334 331 330 331 331 332 330 328 323 319 324 325 323 322 315 316 317 316 314 312 315 317 315 319 321 322 322 322 321
331 330 331 332 331 331 330 328 330 329 326 321 321 322 322 324 319 317 317 318 317 314 318 320 319 317 319 321 322 322 321 320
326 327 327 328 328 329 329 329 329 327 325 321 320 321 321 321 321 320 319 322 320 320 322 321 320 319 319 320 321 322 322 321
325 324 324 326 326 327 328 328 328 325 324 319 320 322 322 323 324 324 323 323 323 322 322 321 320 319 318 319 320 321 321 321
325 324 325 324 326 326 325 325 326 322 322 322 320 317 321 324 325 324 323 324 323 323 322 320 320 319 318 318 319 320 320 321
326 325 325 325 324 324 325 325 326 323 321 319 318 317 317 323 324 324 324 324 324 322 321 319 319 319 318 317 317 317 318 318
327 324 324 324 325 325 324 324 323 321 320 318 320 321 319 317 321 322 322 322 322 321 320 320 320 319 317 316 315 315 315 315
327 324 325 325 324 324 324 323 323 322 318 315 320 321 320 320 320 321 321 321 320 320 320 321 321 320 318 317 315 315 314 313
326 325 325 325 324 324 324 322 322 320 316 313 312 319 320 317 318 317 318 319 320 320 321 322 321 321 319 318 318 318 317 316
326 326 326 325 324 323 323 322 321 318 315 314 320 320 318 315 315 315 316 314 322 322 323 323 323 321 321 321 321 320 319 320
324 325 326 325 324 323 322 321 320 318 316 317 319 321 320 317 318 316 314 316 323 322 323 323 321 322 321 322 321 322 323 322
324 324 324 324 323 322 322 321 321 319 316 316 320 316 317 316 317 317 315 319 323 323 321 322 320 320 321 321 321 323 323 322
325 324 325 324 324 323 321 321 322 321 318 316 321 320 317 316 317 317 318 319 320 320 320 320 320 319 319 320 323 322 322 322
324 324 324 324 324 323 324 323 321 320 319 318 318 319 317 318 316 316 318 318 318 318 319 319 319 319 319 321 322 322 322 322
324 324 323 324 324 324 322 322 321 319 322 322 319 316 316 315 319 318 318 318 318 317 319 317 318 317 319 319 319 320 319 321
325 324 323 322 323 324 323 322 321 319 319 322 320 316 315 315 317 320 318 317 317 318 318 318 317 316 318 319 318 320 320 320

GFSFLT2_850_thetae_072.txt.gz
Theta_e
340 339 336 336 334 334 329 327 323 332 328 321 324 325 324 326 326 320 318 312 309 308 309 310 309 318 322 322 323 322 322 319
338 339 338 336 329 331 327 325 325 325 329 323 326 325 325 326 322 313 312 309 308 308 308 308 309 317 321 322 322 322 321 320
332 337 337 336 333 331 329 326 323 329 328 323 327 325 327 323 318 311 308 308 308 308 308 307 308 317 321 321 322 322 321 320
332 332 335 336 334 331 326 329 324 328 329 326 327 327 324 325 323 309 308 308 307 307 307 308 309 319 321 322 322 322 321 318
329 331 332 333 332 333 331 330 329 325 330 329 327 325 324 327 322 309 308 307 309 310 309 308 312 320 321 322 322 322 321 314
330 330 331 332 332 332 332 330 329 331 329 328 324 322 324 326 323 311 311 312 312 311 310 310 313 319 321 322 323 322 321 315
330 330 330 332 332 332 331 331 331 330 329 326 323 322 325 323 321 314 315 314 312 315 320 318 314 319 321 321 322 321 321 313
326 327 326 327 330 331 330 330 329 330 327 325 322 322 321 320 316 315 317 316 313 322 322 320 319 319 320 321 322 321 321 316
327 325 324 325 326 327 327 329 329 329 327 324 323 319 318 321 317 317 320 318 316 322 322 321 320 319 319 320 321 322 321 320
326 325 325 325 324 327 327 329 329 328 326 325 322 320 321 319 319 319 323 323 321 323 321 320 319 319 318 319 320 321 322 321
326 324 324 324 324 325 326 327 327 326 326 324 323 321 321 322 321 322 323 323 323 323 321 320 320 319 318 318 318 319 319 320
326 324 325 324 324 324 325 325 325 325 324 324 322 319 320 316 321 324 325 324 324 322 320 319 319 319 318 317 316 316 315 314
326 324 325 325 324 324 323 323 324 324 324 322 319 316 316 322 324 324 323 322 322 322 320 320 321 321 319 317 315 315 314 314
325 325 325 325 324 324 324 323 323 323 322 320 320 320 320 322 321 321 322 322 321 321 320 321 321 321 319 317 318 318 316 315
325 326 325 326 324 324 324 323 323 321 321 318 318 318 321 320 321 321 320 319 318 319 319 320 321 321 319 319 321 321 321 320
327 327 325 325 324 324 324 323 322 322 319 318 316 316 314 316 319 317 316 314 315 318 319 320 322 320 321 321 321 321 321 320
326 324 325 324 323 323 323 322 322 321 315 313 313 317 320 320 319 318 315 315 315 315 319 321 320 320 319 319 320 320 319 319
326 325 324 324 324 323 323 322 321 320 318 314 318 320 319 319 320 319 315 316 313 314 319 321 320 320 319 319 319 318 320 320
323 325 324 324 324 323 322 323 322 321 320 315 316 320 319 318 319 318 318 317 315 316 319 321 320 319 318 318 319 319 320 320
323 324 323 323 323 323 323 323 322 322 322 320 316 316 319 318 315 316 317 317 317 318 319 319 318 318 318 317 319 319 319 318

GFSFLT2_850_thetae_075.txt.gz
Theta_e
336 340 340 339 338 336 336 333 326 329 325 332 328 324 328 329 326 322 319 315 316 317 319 321 322 322 322 322 322 322 317 311
335 338 339 337 336 336 333 331 330 326 324 329 328 329 327 326 324 322 314 311 314 315 314 314 319 322 322 323 322 322 318 308
328 338 338 337 335 334 332 330 326 328 326 324 328 330 328 327 324 316 312 310 311 311 310 314 321 322 322 322 321 321 314 308
330 332 334 336 335 331 330 328 327 325 325 324 332 329 327 325 321 312 309 309 309 309 309 318 321 321 321 322 321 321 320 312
332 331 330 331 334 332 331 330 326 324 323 326 331 328 327 321 316 311 309 308 308 308 309 317 321 321 322 322 321 321 321 311
327 328 328 331 333 332 330 327 328 327 332 331 327 328 323 322 312 308 308 308 308 307 308 315 320 322 322 322 321 321 320 309
328 330 330 331 333 332 331 330 330 328 326 329 328 325 323 324 310 308 308 307 308 309 309 319 321 322 322 323 323 321 320 311
328 329 329 330 332 332 331 331 330 328 326 329 326 321 325 322 312 308 308 310 310 309 309 319 320 320 322 322 322 321 320 312
328 326 326 326 327 330 330 330 330 329 327 328 323 322 322 317 315 311 311 311 315 318 314 314 319 319 321 322 322 320 321 314
328 327 324 324 324 327 329 330 330 328 327 327 322 322 323 323 314 314 314 313 321 321 320 319 319 318 321 321 322 321 321 319
327 325 324 325 325 325 327 328 329 328 328 325 322 322 321 323 313 315 316 315 322 323 321 320 319 318 320 320 321 321 321 320
326 324 324 324 323 327 327 326 326 329 327 326 323 322 320 320 315 316 318 318 320 323 321 319 319 319 318 318 319 320 320 320
327 324 324 324 324 324 325 326 327 328 328 325 325 321 320 319 317 319 323 321 320 323 321 319 320 320 318 318 317 317 317 317
324 324 325 324 323 323 326 326 326 326 325 326 324 320 320 319 319 323 322 323 322 322 320 319 319 319 318 317 316 315 315 314
326 324 325 324 324 322 323 323 324 324 324 325 323 321 320 320 322 320 321 321 320 321 320 319 321 320 320 318 317 316 316 315
325 326 325 324 324 323 323 322 322 323 324 324 322 320 318 319 318 322 323 322 320 321 321 320 321 319 320 319 318 320 321 321
327 324 326 324 324 323 323 323 323 322 323 321 318 317 318 321 322 322 322 321 321 321 321 319 320 320 320 320 319 320 321 320
323 326 326 324 324 323 323 323 323 322 322 320 320 320 319 320 322 321 321 319 319 317 317 319 319 320 321 319 319 320 319 319
326 326 325 324 323 322 323 323 322 322 322 322 318 319 319 319 318 318 318 318 318 315 315 319 320 320 319 318 319 318 318 319
324 326 323 323 322 322 322 322 322 322 321 321 319 318 318 320 320 319 317 317 317 314 316 315 316 318 317 320 319 318 318 318

GFSFLT2_850_thetae_078.txt.gz
Theta_e
330 339 340 338 338 337 336 336 335 333 330 327 326 328 331 328 326 323 324 321 322 325 324 326 326 325 324 325 324 323 323 314
324 335 342 340 339 337 335 334 333 326 326 327 324 328 325 329 326 322 322 317 322 323 324 323 322 323 323 322 321 320 314 310
327 326 333 338 339 338 334 332 332 329 328 324 323 327 330 329 327 323 315 318 323 323 322 322 321 322 322 322 321 320 309 307
331 330 329 334 336 336 334 333 329 329 327 324 324 328 330 328 326 320 316 316 319 322 322 321 322 322 322 322 321 315 308 307
331 330 331 331 332 332 329 330 327 327 327 326 324 324 328 328 326 320 314 318 317 318 320 321 322 322 322 321 320 320 314 307
328 328 331 330 330 328 329 329 327 325 324 325 326 326 328 328 323 317 311 315 314 313 321 321 321 321 321 321 321 320 319 307
326 326 328 328 330 330 328 328 329 326 325 325 325 331 327 326 317 312 310 310 310 312 321 321 321 322 322 321 321 321 318 308
322 327 329 329 329 331 329 329 327 327 325 327 325 327 327 321 312 309 309 308 308 311 320 321 321 322 322 322 322 321 318 310
323 327 328 328 331 331 329 329 327 329 327 328 326 327 324 317 310 308 308 308 307 310 319 320 322 322 322 322 322 321 319 312
325 326 326 325 326 329 331 330 328 329 328 327 327 326 321 318 310 308 308 307 308 309 320 320 321 321 321 322 322 320 320 313
323 325 326 324 323 326 329 330 330 327 328 328 328 323 324 319 310 308 308 309 309 314 319 319 319 320 321 321 321 321 320 318
321 325 324 324 326 325 327 329 330 329 328 328 325 322 321 318 311 309 310 310 314 312 316 315 315 317 320 321 321 321 321 319
320 324 323 324 326 325 326 327 329 329 326 327 325 322 323 320 314 312 312 314 319 319 320 320 318 318 320 319 320 320 320 320
320 323 324 323 324 326 327 328 328 328 328 326 325 324 323 321 316 314 314 321 322 322 321 320 319 318 318 318 319 319 319 319
318 322 324 323 324 325 324 326 327 326 327 325 324 324 323 319 317 315 318 316 319 322 321 320 319 319 319 318 317 316 317 316
319 324 324 323 323 323 325 325 325 325 327 326 324 323 322 319 318 315 321 322 321 321 321 319 320 319 319 318 317 316 316 316
320 324 323 323 323 324 322 322 323 324 325 326 325 323 320 320 318 318 320 323 322 322 321 320 319 319 319 318 317 317 319 320
321 325 325 324 324 323 322 323 322 323 323 323 324 323 321 321 321 321 322 321 321 321 320 320 319 320 319 320 318 318 319 320
321 325 324 324 324 324 323 323 323 323 322 322 324 323 321 320 319 320 320 321 322 319 319 319 320 319 320 320 319 319 319 319
319 323 323 323 322 323 323 323 322 322 323 322 323 323 321 319 319 322 322 322 322 321 321 321 320 320 319 319 321 319 318 317

GFSFLT2_850_thetae_081.txt.gz
Theta_e
325 331 336 338 337 337 335 334 332 330 329 327 326 326 325 326 329 329 329 329 327 326 325 325 326 325 324 323 323 322 324 322
325 329 339 339 337 337 337 336 334 331 329 328 328 327 326 325 328 329 327 326 326 325 325 325 325 324 323 323 323 322 320 318
327 326 327 336 337 335 336 336 334 331 331 328 326 324 327 328 329 327 326 325 325 325 325 326 326 324 323 322 320 318 317 311
328 329 328 329 330 333 333 336 335 330 331 328 326 325 326 324 326 325 326 324 325 326 326 325 323 323 322 321 321 316 310 309
329 330 329 328 332 329 333 334 332 330 330 328 327 325 323 326 327 326 326 325 324 325 323 322 322 322 321 321 320 312 308 308
329 329 327 327 331 332 331 330 324 328 329 328 328 324 326 327 327 326 322 326 324 323 322 321 322 322 322 321 317 314 307 308
328 328 324 324 328 330 331 327 329 328 327 327 324 326 325 329 327 326 322 325 323 322 321 321 322 322 321 320 320 320 314 308
328 327 321 325 328 328 330 329 329 326 326 326 325 326 324 328 327 325 319 324 323 321 321 321 321 321 321 320 321 320 316 308
328 325 321 327 328 329 331 329 327 327 325 325 325 325 327 325 327 321 315 320 320 320 320 321 321 321 321 321 321 320 316 309
327 325 322 326 328 330 330 328 325 327 325 325 325 327 326 326 326 317 312 315 315 318 320 320 321 322 321 321 322 320 317 312
327 325 323 325 325 330 329 330 327 327 326 327 327 327 328 327 324 313 310 311 312 318 320 320 321 322 322 322 322 320 319 313
327 325 322 325 325 325 328 329 329 327 328 326 326 327 329 327 319 310 309 309 310 316 320 320 321 322 321 321 322 320 320 318
327 324 321 324 324 324 327 327 328 328 328 326 328 327 327 324 315 309 308 308 308 311 319 320 320 320 320 321 321 321 320 320
327 323 323 323 324 324 326 326 328 329 329 327 327 327 325 323 311 308 307 307 308 309 319 320 319 319 320 321 321 320 321 320
327 323 323 323 323 324 325 327 326 327 327 328 327 325 322 322 310 308 307 309 309 310 318 318 315 317 318 320 319 320 320 320
326 320 323 324 323 324 325 325 327 326 327 328 327 323 323 323 319 310 310 310 312 312 315 316 318 318 318 319 319 317 317 317
326 319 324 323 323 323 324 325 325 327 326 327 327 323 324 323 320 313 312 312 318 320 320 320 320 318 318 318 318 316 316 316
323 320 324 324 323 322 324 323 324 325 324 324 326 324 323 324 322 319 314 316 317 322 322 321 321 319 319 318 318 317 317 317
321 320 323 322 323 323 323 322 323 324 324 325 326 325 325 323 322 320 318 318 319 318 320 322 321 320 319 319 319 319 318 318
321 320 322 322 323 323 323 322 322 322 323 324 324 325 324 324 322 320 319 316 320 322 322 322 321 320 320 320 319 319 318 318

GFSFLT2_850_thetae_084.txt.gz
Theta_e
324 325 329 331 335 335 333 331 330 329 328 328 327 326 326 324 323 324 326 326 327 329 328 326 325 324 323 325 326 328 327 326
324 327 331 334 336 336 335 333 332 330 328 329 329 326 326 326 324 326 327 329 329 328 327 325 325 327 327 327 327 327 326 324
325 328 334 334 333 336 336 335 334 333 330 329 329 326 325 324 325 324 327 328 327 327 327 327 327 326 325 324 323 321 321 322
327 327 331 331 334 334 336 335 335 333 330 328 327 327 326 326 326 325 326 325 326 327 328 326 325 325 324 323 322 319 319 316
328 328 329 327 327 330 333 334 333 333 331 329 329 328 327 325 326 325 326 324 326 327 327 326 325 324 323 321 320 316 314 311
329 328 329 328 328 329 328 328 333 331 332 329 329 328 326 325 325 326 325 324 324 326 325 326 325 323 321 321 320 313 310 309
328 329 329 328 325 326 330 330 332 331 331 328 328 326 325 326 324 324 325 324 324 325 326 324 322 322 321 321 314 309 308 309
329 329 329 327 323 324 328 329 330 330 327 329 328 326 327 324 325 325 324 324 324 325 325 322 321 321 321 320 319 318 309 308
329 329 329 325 321 325 326 327 330 329 328 328 328 327 325 325 326 327 326 323 325 325 322 321 321 322 321 320 320 319 314 308
329 329 328 324 322 326 327 327 330 329 327 327 327 326 325 326 326 324 326 323 325 324 321 321 321 321 321 320 320 320 316 310
329 329 326 324 324 326 327 328 330 328 327 326 326 325 326 325 325 325 326 321 325 323 321 321 321 321 321 321 320 320 316 312
329 328 326 325 325 331 328 327 327 327 326 327 325 325 325 325 324 324 326 320 325 323 320 321 321 321 321 321 321 320 318 314
328 327 327 325 325 328 327 326 328 329 327 325 326 325 326 326 326 325 326 317 325 324 320 320 320 321 321 321 320 320 319 316
328 328 326 322 323 324 326 326 326 327 328 327 326 326 326 327 326 326 324 315 323 321 319 319 320 322 322 321 320 319 319 319
328 328 326 321 323 323 326 325 327 326 327 327 327 325 326 326 327 327 321 312 318 318 318 319 320 321 321 321 320 320 320 320
328 327 324 321 323 324 324 323 325 326 327 327 325 326 327 327 327 325 316 311 311 313 317 319 320 320 320 320 320 319 320 320
328 326 322 320 323 322 323 324 326 325 327 327 325 327 325 326 324 319 311 309 309 309 314 319 319 320 320 319 319 319 317 316
328 326 320 322 323 323 325 323 324 325 326 327 326 326 327 324 324 317 309 308 308 308 309 317 319 319 317 315 316 318 318 316
327 326 319 322 323 323 325 323 324 324 325 326 326 327 326 320 321 320 319 308 309 310 309 315 319 317 318 318 317 317 317 316
327 325 319 322 324 323 323 325 323 324 324 324 326 326 325 323 325 322 321 315 312 311 317 317 319 320 320 320 319 318 318 318

GFSFLT2_850_thetae_087.txt.gz
Theta_e
323 324 325 327 330 332 332 331 330 329 329 333 333 334 335 333 332 329 326 326 327 328 330 327 330 328 327 327 327 327 327 328
325 325 326 328 333 333 334 332 331 330 329 331 332 332 333 332 326 326 323 326 326 327 329 327 328 327 327 328 328 328 327 327
325 325 326 329 334 340 336 334 332 331 330 330 329 329 330 325 325 324 325 326 326 327 328 327 327 326 327 327 328 328 327 326
325 324 326 331 331 336 337 335 334 333 332 329 329 327 327 326 326 327 325 326 325 327 327 326 327 327 329 328 328 327 327 326
325 325 326 331 331 333 335 336 334 333 333 332 329 329 327 325 324 326 327 328 327 326 326 326 327 328 326 325 323 323 322 322
326 326 327 329 327 331 333 334 335 335 333 332 330 328 326 328 326 326 327 326 325 327 327 327 327 325 323 323 321 319 318 316
328 327 328 329 328 329 328 334 336 336 332 331 330 328 328 328 326 326 327 326 324 326 327 326 325 325 323 321 320 318 314 313
329 328 328 329 329 329 328 329 333 333 333 331 330 328 328 328 326 326 326 326 324 325 326 325 325 324 322 321 317 311 310 312
330 329 329 329 329 329 327 329 333 331 330 330 329 328 328 328 325 326 326 324 323 325 325 325 325 323 321 320 317 314 310 312
330 329 330 329 329 328 323 328 332 328 329 332 330 327 329 327 325 326 325 324 324 325 324 325 322 322 321 320 319 319 313 313
330 329 330 329 329 326 324 329 331 327 329 329 330 329 327 327 327 326 324 324 324 324 326 324 321 322 321 320 320 319 316 312
329 329 330 329 328 324 328 328 329 327 329 328 327 327 327 326 326 326 326 323 324 325 325 322 321 322 321 320 320 319 318 314
328 329 330 329 327 325 327 326 326 327 327 328 326 326 327 326 326 325 323 323 324 324 325 322 321 321 321 320 320 320 318 316
327 329 329 328 327 326 328 326 325 327 326 327 326 325 326 326 326 325 320 325 324 325 324 321 321 321 321 320 319 319 318 318
326 329 329 327 327 323 327 325 326 326 325 327 327 324 325 325 325 325 324 325 324 324 323 321 321 321 321 321 320 322 320 318
328 329 328 327 325 321 323 324 324 325 326 326 326 327 326 325 327 325 325 325 326 323 324 323 320 320 321 321 321 320 321 321
328 328 328 327 321 322 322 324 323 323 324 326 326 327 325 325 325 326 326 326 326 321 325 323 320 320 321 321 321 320 319 318
328 328 328 326 319 324 325 322 324 325 326 326 326 326 324 325 326 325 326 327 324 317 323 322 319 319 320 321 321 320 319 318
328 328 327 325 320 323 324 323 323 325 325 326 326 325 325 325 326 326 325 323 317 313 317 320 318 319 320 320 320 320 319 316
328 328 327 322 322 323 325 323 324 324 324 325 326 325 322 321 324 324 318 313 311 309 310 312 314 313 317 319 320 319 316 317

GFSFLT2_850_thetae_090.txt.gz
Theta_e
323 322 321 322 323 328 331 332 332 331 331 334 334 335 335 333 334 333 332 331 329 328 329 330 328 329 330 330 331 331 332 330
323 323 322 322 322 326 331 332 332 331 330 332 333 334 335 335 334 333 332 330 324 324 328 330 328 330 330 328 330 329 331 330
325 324 323 323 323 325 331 335 332 331 330 330 332 333 334 335 333 332 328 327 326 325 328 329 329 329 329 328 328 330 330 328
326 326 324 324 325 325 331 336 335 332 331 330 331 332 333 335 333 329 327 326 325 323 325 327 329 328 328 329 328 330 329 327
326 327 326 326 326 326 331 336 335 335 333 332 333 332 332 333 330 326 327 326 325 326 327 327 328 327 327 327 330 329 327 327
326 327 327 328 328 328 329 330 334 334 333 333 331 331 331 330 326 325 326 326 326 328 328 328 327 329 327 327 329 327 325 324
328 327 327 327 329 327 329 330 332 333 333 333 333 330 329 328 326 327 326 327 328 328 327 327 328 327 327 327 327 325 324 322
339 328 328 327 330 328 327 328 327 332 332 333 333 332 330 328 327 328 326 327 328 326 325 326 326 328 327 326 325 324 322 321
339 332 329 328 330 330 328 328 328 326 330 330 332 330 330 329 328 328 327 327 327 326 324 326 327 327 326 325 324 322 320 320
336 334 331 329 330 330 330 330 329 328 332 329 330 331 330 328 328 327 327 326 327 325 325 326 326 326 325 325 322 320 320 320
334 333 330 330 329 331 331 330 329 328 328 330 329 329 329 327 327 328 327 326 327 324 324 326 326 325 324 324 322 322 320 319
332 332 328 331 330 331 331 330 325 325 328 328 328 328 326 327 328 328 327 326 326 323 325 325 326 324 323 323 323 322 321 319
328 333 327 331 331 332 331 327 324 325 328 328 327 326 327 327 328 327 327 326 325 322 324 325 325 324 323 323 322 323 322 320
328 333 327 330 331 331 329 326 325 324 325 326 327 328 329 328 327 327 327 326 325 322 324 324 324 323 322 322 321 321 321 321
329 332 328 330 332 330 328 326 325 325 325 326 327 327 327 326 327 326 326 325 325 323 324 325 324 322 323 322 322 322 322 322
329 331 331 330 330 330 327 327 325 326 326 326 327 327 326 326 325 326 326 325 323 323 324 324 324 323 323 322 322 321 322 322
327 331 331 330 329 329 326 325 326 327 325 325 325 325 326 324 325 325 326 322 323 324 324 324 323 323 323 323 324 324 323 321
325 330 330 329 328 327 324 326 324 325 325 325 325 325 325 325 324 325 325 323 322 325 324 324 323 323 322 323 323 323 322 321
325 329 329 327 327 324 320 323 325 324 324 326 326 326 325 326 325 326 326 325 325 325 325 324 323 323 322 322 322 322 321 321
326 326 328 325 326 320 323 324 324 324 325 325 325 324 325 324 323 325 324 324 325 325 325 323 324 324 322 320 320 321 322 322

GFSFLT2_850_thetae_093.txt.gz
Theta_e
323 322 322 321 321 322 325 329 331 332 335 336 337 338 338 335 334 333 333 331 330 330 327 325 329 330 330 329 332 331 333 331
324 323 322 321 321 322 324 328 331 332 333 334 334 335 335 335 333 332 332 332 331 331 327 323 326 328 330 330 332 331 331 329
327 323 324 323 322 322 324 328 331 331 332 332 333 334 335 334 333 333 332 332 332 329 326 328 327 327 329 328 330 332 331 329
334 325 325 325 339 332 324 326 331 332 332 332 331 334 335 335 334 333 332 331 329 327 325 328 327 327 329 328 330 329 328 329
337 330 328 326 337 339 339 338 337 337 336 337 334 336 334 333 334 333 332 328 328 327 326 328 327 329 329 328 330 329 329 328
343 334 340 327 332 334 340 339 338 337 336 337 337 336 333 333 333 333 332 328 327 326 326 324 327 328 328 329 328 329 327 327
343 338 337 330 328 326 329 332 339 338 338 336 335 333 333 334 333 332 331 327 326 327 327 326 327 327 326 328 327 327 327 326
340 342 333 339 330 326 327 326 329 332 335 334 334 333 334 332 331 331 327 326 327 326 327 327 326 325 327 327 328 325 325 323
335 343 337 335 329 327 327 327 327 330 329 333 332 333 333 332 330 329 326 327 327 327 326 327 326 324 326 327 326 324 323 322
331 339 339 336 331 328 327 328 327 327 327 326 329 332 332 332 331 328 328 328 327 327 327 326 325 326 328 325 324 323 322 321
329 336 337 335 333 329 328 328 328 329 330 329 324 330 331 329 331 330 327 327 327 328 326 325 325 326 325 324 323 321 321 321
327 334 338 334 335 333 330 331 330 330 330 330 327 329 330 329 329 329 328 328 326 327 326 324 325 325 325 323 322 322 320 320
328 333 338 335 340 335 331 332 331 332 332 330 326 327 330 329 328 327 327 327 327 326 326 324 324 325 323 322 322 322 322 320
328 332 337 335 334 338 335 333 334 331 330 326 324 328 328 328 327 328 327 327 327 326 324 323 324 325 323 323 323 321 321 322
327 330 335 335 333 335 335 334 333 333 327 327 326 328 328 328 326 327 327 327 327 326 325 322 323 324 322 322 322 322 322 322
328 330 335 334 334 335 336 332 331 329 328 326 325 325 327 328 327 328 328 327 326 326 325 322 322 323 323 322 321 320 322 323
329 331 334 334 335 335 334 333 333 330 327 327 326 326 326 327 327 327 327 324 325 325 323 321 322 323 323 323 321 323 322 323
331 332 333 334 334 334 334 333 331 328 330 327 327 328 326 326 326 326 325 325 326 325 323 321 323 324 323 321 322 322 323 323
332 332 333 334 333 333 333 332 329 328 329 327 327 325 326 325 326 325 324 325 325 325 321 324 324 324 323 323 323 323 323 322
329 331 332 333 333 332 331 330 328 329 328 325 325 326 325 325 325 325 324 324 325 324 323 324 323 323 323 322 321 322 322 322

GFSFLT2_850_thetae_096.txt.gz
Theta_e
329 322 322 321 320 320 321 323 327 330 332 335 338 339 339 337 336 334 333 336 333 331 330 328 325 329 328 329 331 331 333 333
329 322 322 321 320 321 322 324 326 330 332 334 336 338 338 337 336 334 333 335 333 331 330 328 327 331 328 329 332 332 332 332
330 325 322 322 321 321 322 323 326 330 332 333 333 334 336 336 335 334 333 333 332 332 330 326 326 328 327 328 332 330 330 330
340 330 323 323 322 321 322 322 324 328 331 332 331 334 334 335 335 334 333 333 332 332 330 327 326 326 328 328 328 331 329 328
344 339 327 325 329 323 323 322 323 328 331 333 331 333 333 335 335 334 333 332 332 331 328 326 325 327 326 327 328 329 329 328
345 340 335 327 333 329 325 326 327 328 332 336 335 333 333 334 335 334 333 332 331 330 328 327 326 325 326 327 328 329 329 326
343 341 340 330 331 333 333 336 335 333 337 336 335 336 335 335 334 334 333 333 332 329 328 328 325 325 327 326 328 328 327 327
341 338 341 338 331 330 330 336 340 337 335 334 336 336 335 335 334 334 333 333 331 328 327 327 326 325 326 325 328 327 328 328
336 338 337 339 333 331 330 327 330 334 335 333 332 333 334 333 333 333 332 332 331 328 326 327 327 326 325 325 326 326 326 326
324 337 337 340 337 337 335 330 326 327 328 332 332 332 332 333 332 333 332 331 329 326 327 327 327 326 322 325 326 325 324 324
323 336 338 334 340 334 343 334 330 328 326 326 330 331 330 331 332 331 331 329 327 327 327 327 328 325 322 325 326 324 322 322
322 327 337 334 340 337 343 343 333 333 330 328 327 328 326 329 331 331 330 329 328 328 327 327 326 324 323 325 325 323 322 321
321 327 334 330 335 337 339 342 340 337 332 330 330 329 328 328 332 330 330 329 329 327 327 327 325 324 325 324 322 321 320 321
321 328 333 332 334 337 336 340 339 338 333 330 330 335 330 328 327 329 329 328 328 328 325 327 325 324 325 323 323 321 320 320
321 327 334 334 334 337 334 337 336 335 337 331 333 335 333 326 327 329 329 328 326 325 327 326 324 324 324 322 322 321 321 320
322 323 328 334 336 337 333 335 334 333 332 334 331 328 327 326 326 328 328 327 327 326 326 325 324 324 324 322 321 321 320 322
322 323 327 334 334 335 334 335 334 333 332 331 331 329 327 326 328 327 327 327 326 327 326 327 324 324 324 323 320 320 319 319
323 325 328 333 335 334 337 336 335 332 332 330 328 327 325 325 328 327 327 327 327 328 326 325 323 323 324 323 320 322 322 321
326 326 330 335 335 333 338 336 333 334 331 329 328 328 326 327 326 326 327 326 327 326 326 324 324 322 322 322 320 321 323 324
328 330 331 336 335 336 335 334 333 332 330 328 328 327 327 326 325 326 324 325 326 325 324 325 325 321 323 322 322 320 322 323